Wetterdaten: Samstag, 04.03.2017
Datum Zeit Temp. A. Feuchte A. Luftdruck Regen Wind Richtung Richtung Sonnenschein ET UV Solar Taupunkt Windchill Windben Empfang
04.03.2017 00:00 4,9 C 79 % 1005,6 hPa 0,0 l/m 5,4 km/h (1 Bft) NO 55 0 min 0,000 mm 0,0 UV-I 0 W/m 1,6 C 4,9 C 8,0 km/h (2 Bft) 93,62 %
04.03.2017 00:02 5,3 C 77 % 1005,6 hPa 0,0 l/m 4,9 km/h (1 Bft) NO 55 0 min 0,000 mm 0,0 UV-I 0 W/m 1,6 C 5,3 C 6,4 km/h (2 Bft) 94,59 %
04.03.2017 00:04 5,6 C 75 % 1005,6 hPa 0,0 l/m 5,6 km/h (1 Bft) NO 53 0 min 0,000 mm 0,0 UV-I 0 W/m 1,5 C 5,6 C 6,4 km/h (2 Bft) 92,45 %
04.03.2017 00:06 5,7 C 75 % 1005,6 hPa 0,0 l/m 3,1 km/h (1 Bft) NO 53 0 min 0,000 mm 0,0 UV-I 0 W/m 1,6 C 5,7 C 4,8 km/h (1 Bft) 94,44 %
04.03.2017 00:08 5,7 C 74 % 1005,6 hPa 0,0 l/m 2,3 km/h (1 Bft) NO 53 0 min 0,000 mm 0,0 UV-I 0 W/m 1,4 C 5,7 C 4,8 km/h (1 Bft) 92,16 %
04.03.2017 00:10 5,2 C 77 % 1005,6 hPa 0,0 l/m 2,8 km/h (1 Bft) NO 53 0 min 0,000 mm 0,0 UV-I 0 W/m 1,5 C 5,2 C 4,8 km/h (1 Bft) 92,73 %
04.03.2017 00:12 4,7 C 78 % 1005,5 hPa 0,0 l/m 3,1 km/h (1 Bft) NO 53 0 min 0,000 mm 0,0 UV-I 0 W/m 1,2 C 4,7 C 6,4 km/h (2 Bft) 92,86 %
04.03.2017 00:14 4,3 C 80 % 1005,5 hPa 0,0 l/m 4,7 km/h (1 Bft) O 82 0 min 0,000 mm 0,0 UV-I 0 W/m 1,2 C 4,3 C 6,4 km/h (2 Bft) 91,49 %
04.03.2017 00:16 3,9 C 82 % 1005,5 hPa 0,0 l/m 4,7 km/h (1 Bft) O-NO 78 0 min 0,000 mm 0,0 UV-I 0 W/m 1,1 C 3,9 C 6,4 km/h (2 Bft) 95,74 %
04.03.2017 00:18 3,8 C 83 % 1005,5 hPa 0,0 l/m 4,8 km/h (1 Bft) O-NO 69 0 min 0,000 mm 0,0 UV-I 0 W/m 1,2 C 3,8 C 6,4 km/h (2 Bft) 96,00 %
04.03.2017 00:20 4,2 C 82 % 1005,5 hPa 0,0 l/m 6,0 km/h (2 Bft) NO 53 0 min 0,000 mm 0,0 UV-I 0 W/m 1,4 C 4,2 C 8,0 km/h (2 Bft) 94,00 %
04.03.2017 00:22 4,7 C 79 % 1005,5 hPa 0,0 l/m 5,5 km/h (1 Bft) O-NO 57 0 min 0,000 mm 0,0 UV-I 0 W/m 1,4 C 4,7 C 8,0 km/h (2 Bft) 94,74 %
04.03.2017 00:24 5,2 C 77 % 1005,4 hPa 0,0 l/m 4,6 km/h (1 Bft) O-NO 57 0 min 0,000 mm 0,0 UV-I 0 W/m 1,5 C 5,2 C 6,4 km/h (2 Bft) 96,23 %
04.03.2017 00:26 5,6 C 75 % 1005,4 hPa 0,0 l/m 4,2 km/h (1 Bft) O-NO 57 0 min 0,000 mm 0,0 UV-I 0 W/m 1,5 C 5,6 C 4,8 km/h (1 Bft) 95,12 %
04.03.2017 00:28 5,6 C 75 % 1005,4 hPa 0,0 l/m 5,1 km/h (1 Bft) O-NO 69 0 min 0,000 mm 0,0 UV-I 0 W/m 1,5 C 5,6 C 6,4 km/h (2 Bft) 94,34 %
04.03.2017 00:30 5,4 C 75 % 1005,4 hPa 0,0 l/m 4,2 km/h (1 Bft) O-NO 67 0 min 0,000 mm 0,0 UV-I 0 W/m 1,3 C 5,4 C 6,4 km/h (2 Bft) 95,74 %
04.03.2017 00:32 5,4 C 75 % 1005,4 hPa 0,0 l/m 3,5 km/h (1 Bft) O-NO 67 0 min 0,000 mm 0,0 UV-I 0 W/m 1,3 C 5,4 C 6,4 km/h (2 Bft) 95,74 %
04.03.2017 00:34 5,4 C 75 % 1005,3 hPa 0,0 l/m 3,9 km/h (1 Bft) O-NO 67 0 min 0,000 mm 0,0 UV-I 0 W/m 1,3 C 5,4 C 4,8 km/h (1 Bft) 97,37 %
04.03.2017 00:36 5,4 C 75 % 1005,3 hPa 0,0 l/m 4,6 km/h (1 Bft) O-NO 67 0 min 0,000 mm 0,0 UV-I 0 W/m 1,3 C 5,4 C 6,4 km/h (2 Bft) 95,74 %
04.03.2017 00:38 5,5 C 74 % 1005,3 hPa 0,0 l/m 4,8 km/h (1 Bft) O-NO 67 0 min 0,000 mm 0,0 UV-I 0 W/m 1,2 C 5,5 C 6,4 km/h (2 Bft) 96,23 %
04.03.2017 00:40 5,1 C 76 % 1005,3 hPa 0,0 l/m 3,9 km/h (1 Bft) O-NO 67 0 min 0,000 mm 0,0 UV-I 0 W/m 1,2 C 5,1 C 4,8 km/h (1 Bft) 100,00 %
04.03.2017 00:42 4,8 C 77 % 1005,3 hPa 0,0 l/m 3,1 km/h (1 Bft) O-NO 67 0 min 0,000 mm 0,0 UV-I 0 W/m 1,1 C 4,8 C 4,8 km/h (1 Bft) 97,87 %
04.03.2017 00:44 4,6 C 78 % 1005,2 hPa 0,0 l/m 1,6 km/h (1 Bft) O-NO 67 0 min 0,000 mm 0,0 UV-I 0 W/m 1,1 C 4,6 C 3,2 km/h (1 Bft) 100,00 %
04.03.2017 00:46 4,3 C 79 % 1005,2 hPa 0,0 l/m 1,2 km/h (1 Bft) O-NO 67 0 min 0,000 mm 0,0 UV-I 0 W/m 1,0 C 4,3 C 3,2 km/h (1 Bft) 98,11 %
04.03.2017 00:48 4,2 C 80 % 1005,1 hPa 0,0 l/m 0,9 km/h (0 Bft) O-NO 67 0 min 0,000 mm 0,0 UV-I 0 W/m 1,1 C 4,2 C 3,2 km/h (1 Bft) 100,00 %
04.03.2017 00:50 4,0 C 81 % 1005,0 hPa 0,0 l/m 2,7 km/h (1 Bft) O-NO 67 0 min 0,000 mm 0,0 UV-I 0 W/m 1,0 C 4,0 C 4,8 km/h (1 Bft) 94,87 %
04.03.2017 00:52 4,1 C 81 % 1005,0 hPa 0,0 l/m 1,4 km/h (1 Bft) O-NO 67 0 min 0,000 mm 0,0 UV-I 0 W/m 1,1 C 4,1 C 4,8 km/h (1 Bft) 96,15 %
04.03.2017 00:54 3,9 C 81 % 1005,0 hPa 0,0 l/m 0,4 km/h (0 Bft) O-NO 67 0 min 0,000 mm 0,0 UV-I 0 W/m 0,9 C 3,9 C 1,6 km/h (1 Bft) 100,00 %
04.03.2017 00:56 3,8 C 82 % 1005,0 hPa 0,0 l/m 0,1 km/h (0 Bft) O-NO 67 0 min 0,000 mm 0,0 UV-I 0 W/m 1,0 C 3,8 C 1,6 km/h (1 Bft) 98,00 %
04.03.2017 00:58 3,7 C 82 % 1005,0 hPa 0,0 l/m 2,3 km/h (1 Bft) O-NO 67 0 min 0,000 mm 0,0 UV-I 0 W/m 0,9 C 3,7 C 3,2 km/h (1 Bft) 100,00 %
04.03.2017 01:00 3,5 C 83 % 1005,0 hPa 0,0 l/m 4,1 km/h (1 Bft) O-NO 71 0 min 0,000 mm 0,0 UV-I 0 W/m 0,9 C 3,5 C 4,8 km/h (1 Bft) 91,49 %
04.03.2017 01:02 3,3 C 84 % 1004,9 hPa 0,0 l/m 4,0 km/h (1 Bft) O-NO 71 0 min 0,000 mm 0,0 UV-I 0 W/m 0,9 C 3,3 C 6,4 km/h (2 Bft) 100,00 %
04.03.2017 01:04 3,3 C 84 % 1004,9 hPa 0,0 l/m 3,9 km/h (1 Bft) O-NO 71 0 min 0,000 mm 0,0 UV-I 0 W/m 0,9 C 3,3 C 4,8 km/h (1 Bft) 100,00 %
04.03.2017 01:06 3,3 C 84 % 1004,9 hPa 0,0 l/m 4,6 km/h (1 Bft) O-NO 71 0 min 0,000 mm 0,0 UV-I 0 W/m 0,9 C 3,3 C 6,4 km/h (2 Bft) 98,00 %
04.03.2017 01:08 3,5 C 84 % 1004,9 hPa 0,0 l/m 5,8 km/h (2 Bft) O-NO 74 0 min 0,000 mm 0,0 UV-I 0 W/m 1,1 C 3,5 C 8,0 km/h (2 Bft) 98,00 %
04.03.2017 01:10 3,9 C 83 % 1004,9 hPa 0,0 l/m 6,3 km/h (2 Bft) O-NO 74 0 min 0,000 mm 0,0 UV-I 0 W/m 1,3 C 3,9 C 11,3 km/h (2 Bft) 100,00 %
04.03.2017 01:12 4,1 C 81 % 1004,9 hPa 0,0 l/m 6,2 km/h (2 Bft) O-NO 65 0 min 0,000 mm 0,0 UV-I 0 W/m 1,1 C 4,1 C 11,3 km/h (2 Bft) 98,11 %
04.03.2017 01:14 4,2 C 81 % 1004,9 hPa 0,0 l/m 8,5 km/h (2 Bft) O-NO 76 0 min 0,000 mm 0,0 UV-I 0 W/m 1,2 C 2,3 C 14,5 km/h (3 Bft) 100,00 %
04.03.2017 01:16 4,8 C 79 % 1004,9 hPa 0,0 l/m 9,7 km/h (2 Bft) O-SO 109 0 min 0,000 mm 0,0 UV-I 0 W/m 1,5 C 2,1 C 12,9 km/h (3 Bft) 100,00 %
04.03.2017 01:18 5,3 C 77 % 1004,9 hPa 0,0 l/m 7,5 km/h (2 Bft) O 92 0 min 0,000 mm 0,0 UV-I 0 W/m 1,6 C 4,3 C 12,9 km/h (3 Bft) 100,00 %
04.03.2017 01:20 5,5 C 75 % 1004,8 hPa 0,0 l/m 9,7 km/h (2 Bft) O-SO 105 0 min 0,000 mm 0,0 UV-I 0 W/m 1,4 C 2,8 C 12,9 km/h (3 Bft) 96,30 %
04.03.2017 01:22 5,7 C 74 % 1004,8 hPa 0,0 l/m 8,8 km/h (2 Bft) O 101 0 min 0,000 mm 0,0 UV-I 0 W/m 1,4 C 3,7 C 12,9 km/h (3 Bft) 98,51 %
04.03.2017 01:24 5,7 C 74 % 1004,8 hPa 0,0 l/m 10,4 km/h (2 Bft) O-SO 115 0 min 0,000 mm 0,0 UV-I 0 W/m 1,4 C 2,6 C 14,5 km/h (3 Bft) 97,56 %
04.03.2017 01:26 5,8 C 73 % 1004,8 hPa 0,0 l/m 9,7 km/h (2 Bft) O 92 0 min 0,000 mm 0,0 UV-I 0 W/m 1,3 C 3,2 C 14,5 km/h (3 Bft) 98,11 %
04.03.2017 01:28 5,8 C 73 % 1004,8 hPa 0,0 l/m 9,6 km/h (2 Bft) O-SO 113 0 min 0,000 mm 0,0 UV-I 0 W/m 1,3 C 3,2 C 16,1 km/h (3 Bft) 100,00 %
04.03.2017 01:30 5,9 C 73 % 1004,8 hPa 0,0 l/m 8,9 km/h (2 Bft) SO 131 0 min 0,000 mm 0,0 UV-I 0 W/m 1,4 C 3,9 C 14,5 km/h (3 Bft) 97,87 %
04.03.2017 01:32 6,0 C 72 % 1004,8 hPa 0,0 l/m 5,4 km/h (1 Bft) O 88 0 min 0,000 mm 0,0 UV-I 0 W/m 1,3 C 6,0 C 11,3 km/h (2 Bft) 100,00 %
04.03.2017 01:34 5,8 C 72 % 1004,7 hPa 0,0 l/m 1,5 km/h (1 Bft) O 90 0 min 0,000 mm 0,0 UV-I 0 W/m 1,2 C 5,8 C 3,2 km/h (1 Bft) 100,00 %
04.03.2017 01:36 5,6 C 74 % 1004,7 hPa 0,0 l/m 0,9 km/h (0 Bft) O-NO 76 0 min 0,000 mm 0,0 UV-I 0 W/m 1,3 C 5,6 C 4,8 km/h (1 Bft) 100,00 %
04.03.2017 01:38 5,2 C 75 % 1004,7 hPa 0,0 l/m 0,6 km/h (0 Bft) O-NO 76 0 min 0,000 mm 0,0 UV-I 0 W/m 1,1 C 5,2 C 3,2 km/h (1 Bft) 100,00 %
04.03.2017 01:40 4,9 C 76 % 1004,6 hPa 0,0 l/m 4,9 km/h (1 Bft) O-NO 75 0 min 0,000 mm 0,0 UV-I 0 W/m 1,0 C 4,9 C 6,4 km/h (2 Bft) 100,00 %
04.03.2017 01:42 4,9 C 76 % 1004,6 hPa 0,0 l/m 3,6 km/h (1 Bft) O-NO 69 0 min 0,000 mm 0,0 UV-I 0 W/m 1,0 C 4,9 C 8,0 km/h (2 Bft) 95,74 %
04.03.2017 01:44 5,2 C 76 % 1004,6 hPa 0,0 l/m 6,0 km/h (2 Bft) O-NO 73 0 min 0,000 mm 0,0 UV-I 0 W/m 1,3 C 5,2 C 11,3 km/h (2 Bft) 100,00 %
04.03.2017 01:46 5,3 C 75 % 1004,5 hPa 0,0 l/m 3,7 km/h (1 Bft) NO 49 0 min 0,000 mm 0,0 UV-I 0 W/m 1,2 C 5,3 C 6,4 km/h (2 Bft) 97,56 %
04.03.2017 01:49 5,1 C 75 % 1004,5 hPa 0,0 l/m 4,4 km/h (1 Bft) NO 53 0 min 0,000 mm 0,0 UV-I 0 W/m 1,0 C 5,1 C 6,4 km/h (2 Bft) 98,73 %
04.03.2017 01:50 5,1 C 76 % 1004,4 hPa 0,0 l/m 6,4 km/h (2 Bft) O-NO 59 0 min 0,000 mm 0,0 UV-I 0 W/m 1,2 C 5,1 C 8,0 km/h (2 Bft) 100,00 %
04.03.2017 01:52 4,9 C 76 % 1004,4 hPa 0,0 l/m 5,2 km/h (1 Bft) O-NO 62 0 min 0,000 mm 0,0 UV-I 0 W/m 1,0 C 4,9 C 8,0 km/h (2 Bft) 97,56 %
04.03.2017 01:54 4,9 C 76 % 1004,4 hPa 0,0 l/m 4,8 km/h (1 Bft) O-NO 61 0 min 0,000 mm 0,0 UV-I 0 W/m 1,0 C 4,9 C 6,4 km/h (2 Bft) 100,00 %
04.03.2017 01:56 5,0 C 76 % 1004,4 hPa 0,0 l/m 4,1 km/h (1 Bft) O-NO 69 0 min 0,000 mm 0,0 UV-I 0 W/m 1,1 C 5,0 C 6,4 km/h (2 Bft) 100,00 %
04.03.2017 01:58 5,0 C 76 % 1004,5 hPa 0,0 l/m 4,2 km/h (1 Bft) O-NO 70 0 min 0,000 mm 0,0 UV-I 0 W/m 1,1 C 5,0 C 6,4 km/h (2 Bft) 98,11 %
04.03.2017 02:00 5,1 C 76 % 1004,4 hPa 0,0 l/m 4,1 km/h (1 Bft) O-NO 70 0 min 0,025 mm 0,0 UV-I 0 W/m 1,2 C 5,1 C 4,8 km/h (1 Bft) 100,00 %
04.03.2017 02:02 4,9 C 76 % 1004,4 hPa 0,0 l/m 4,4 km/h (1 Bft) O-NO 74 0 min 0,000 mm 0,0 UV-I 0 W/m 1,0 C 4,9 C 6,4 km/h (2 Bft) 92,68 %
04.03.2017 02:04 4,8 C 76 % 1004,4 hPa 0,0 l/m 5,6 km/h (1 Bft) O 85 0 min 0,000 mm 0,0 UV-I 0 W/m 0,9 C 4,8 C 6,4 km/h (2 Bft) 98,11 %
04.03.2017 02:06 4,5 C 78 % 1004,3 hPa 0,0 l/m 3,9 km/h (1 Bft) O 82 0 min 0,000 mm 0,0 UV-I 0 W/m 1,0 C 4,5 C 6,4 km/h (2 Bft) 100,00 %
04.03.2017 02:08 4,3 C 79 % 1004,1 hPa 0,0 l/m 5,1 km/h (1 Bft) O-NO 73 0 min 0,000 mm 0,0 UV-I 0 W/m 1,0 C 4,3 C 8,0 km/h (2 Bft) 100,00 %
04.03.2017 02:10 4,4 C 79 % 1004,1 hPa 0,0 l/m 5,6 km/h (1 Bft) O-NO 63 0 min 0,000 mm 0,0 UV-I 0 W/m 1,1 C 4,4 C 8,0 km/h (2 Bft) 100,00 %
04.03.2017 02:12 4,7 C 78 % 1004,1 hPa 0,0 l/m 6,1 km/h (2 Bft) O 82 0 min 0,000 mm 0,0 UV-I 0 W/m 1,2 C 4,7 C 8,0 km/h (2 Bft) 100,00 %
04.03.2017 02:14 4,9 C 77 % 1004,1 hPa 0,0 l/m 6,6 km/h (2 Bft) O-NO 73 0 min 0,000 mm 0,0 UV-I 0 W/m 1,2 C 4,7 C 8,0 km/h (2 Bft) 94,00 %
04.03.2017 02:16 5,2 C 76 % 1004,0 hPa 0,0 l/m 6,2 km/h (2 Bft) O-NO 67 0 min 0,000 mm 0,0 UV-I 0 W/m 1,3 C 5,2 C 8,0 km/h (2 Bft) 97,56 %
04.03.2017 02:18 5,3 C 75 % 1004,0 hPa 0,0 l/m 5,8 km/h (2 Bft) O-NO 63 0 min 0,000 mm 0,0 UV-I 0 W/m 1,2 C 5,3 C 8,0 km/h (2 Bft) 95,74 %
04.03.2017 02:20 5,4 C 75 % 1003,9 hPa 0,0 l/m 4,9 km/h (1 Bft) O-NO 69 0 min 0,000 mm 0,0 UV-I 0 W/m 1,3 C 5,4 C 6,4 km/h (2 Bft) 98,11 %
04.03.2017 02:22 5,3 C 75 % 1003,9 hPa 0,0 l/m 4,8 km/h (1 Bft) O 83 0 min 0,000 mm 0,0 UV-I 0 W/m 1,2 C 5,3 C 6,4 km/h (2 Bft) 97,37 %
04.03.2017 02:24 5,0 C 76 % 1003,8 hPa 0,0 l/m 3,6 km/h (1 Bft) O-NO 75 0 min 0,000 mm 0,0 UV-I 0 W/m 1,1 C 5,0 C 6,4 km/h (2 Bft) 98,00 %
04.03.2017 02:26 4,8 C 77 % 1003,8 hPa 0,0 l/m 3,8 km/h (1 Bft) O-NO 65 0 min 0,000 mm 0,0 UV-I 0 W/m 1,1 C 4,8 C 8,0 km/h (2 Bft) 96,00 %
04.03.2017 02:28 4,7 C 77 % 1003,8 hPa 0,0 l/m 4,4 km/h (1 Bft) O-NO 66 0 min 0,000 mm 0,0 UV-I 0 W/m 1,0 C 4,7 C 6,4 km/h (2 Bft) 97,87 %
04.03.2017 02:30 4,6 C 78 % 1003,8 hPa 0,0 l/m 4,8 km/h (1 Bft) O-NO 77 0 min 0,000 mm 0,0 UV-I 0 W/m 1,1 C 4,6 C 6,4 km/h (2 Bft) 92,00 %
04.03.2017 02:32 4,7 C 78 % 1003,8 hPa 0,0 l/m 5,0 km/h (1 Bft) O-NO 71 0 min 0,000 mm 0,0 UV-I 0 W/m 1,2 C 4,7 C 6,4 km/h (2 Bft) 98,04 %
04.03.2017 02:34 4,7 C 78 % 1003,7 hPa 0,0 l/m 4,8 km/h (1 Bft) O-NO 68 0 min 0,000 mm 0,0 UV-I 0 W/m 1,2 C 4,7 C 6,4 km/h (2 Bft) 97,37 %
04.03.2017 02:36 4,6 C 78 % 1003,7 hPa 0,0 l/m 4,5 km/h (1 Bft) O-NO 67 0 min 0,000 mm 0,0 UV-I 0 W/m 1,1 C 4,6 C 6,4 km/h (2 Bft) 98,00 %
04.03.2017 02:38 4,6 C 78 % 1003,7 hPa 0,0 l/m 3,2 km/h (1 Bft) O-NO 67 0 min 0,000 mm 0,0 UV-I 0 W/m 1,1 C 4,6 C 4,8 km/h (1 Bft) 97,56 %
04.03.2017 02:40 4,5 C 78 % 1003,7 hPa 0,0 l/m 2,4 km/h (1 Bft) O-NO 67 0 min 0,000 mm 0,0 UV-I 0 W/m 1,0 C 4,5 C 3,2 km/h (1 Bft) 97,87 %
04.03.2017 02:42 4,2 C 79 % 1003,7 hPa 0,0 l/m 3,8 km/h (1 Bft) NO 56 0 min 0,000 mm 0,0 UV-I 0 W/m 0,9 C 4,2 C 4,8 km/h (1 Bft) 94,00 %
04.03.2017 02:44 4,1 C 80 % 1003,6 hPa 0,0 l/m 4,6 km/h (1 Bft) NO 53 0 min 0,000 mm 0,0 UV-I 0 W/m 1,0 C 4,1 C 6,4 km/h (2 Bft) 95,74 %
04.03.2017 02:46 3,9 C 80 % 1003,5 hPa 0,0 l/m 3,3 km/h (1 Bft) NO 53 0 min 0,000 mm 0,0 UV-I 0 W/m 0,8 C 3,9 C 4,8 km/h (1 Bft) 96,23 %
04.03.2017 02:48 3,8 C 81 % 1003,5 hPa 0,0 l/m 0,8 km/h (0 Bft) NO 53 0 min 0,000 mm 0,0 UV-I 0 W/m 0,8 C 3,8 C 3,2 km/h (1 Bft) 95,74 %
04.03.2017 02:50 3,7 C 81 % 1003,6 hPa 0,0 l/m 0,2 km/h (0 Bft) NO 53 0 min 0,000 mm 0,0 UV-I 0 W/m 0,7 C 3,7 C 1,6 km/h (1 Bft) 96,30 %
04.03.2017 02:52 3,7 C 81 % 1003,5 hPa 0,0 l/m 2,7 km/h (1 Bft) NO 46 0 min 0,000 mm 0,0 UV-I 0 W/m 0,7 C 3,7 C 6,4 km/h (2 Bft) 94,03 %
04.03.2017 02:54 3,7 C 82 % 1003,5 hPa 0,0 l/m 5,5 km/h (1 Bft) N-NO 28 0 min 0,000 mm 0,0 UV-I 0 W/m 0,9 C 3,7 C 8,0 km/h (2 Bft) 97,62 %
04.03.2017 02:56 3,8 C 82 % 1003,4 hPa 0,0 l/m 4,9 km/h (1 Bft) NO 35 0 min 0,000 mm 0,0 UV-I 0 W/m 1,0 C 3,8 C 6,4 km/h (2 Bft) 93,62 %
04.03.2017 02:58 3,8 C 81 % 1003,4 hPa 0,0 l/m 6,1 km/h (2 Bft) N-NO 28 0 min 0,000 mm 0,0 UV-I 0 W/m 0,8 C 3,8 C 8,0 km/h (2 Bft) 97,37 %
04.03.2017 03:00 3,8 C 81 % 1003,4 hPa 0,0 l/m 6,3 km/h (2 Bft) N-NO 33 0 min 0,000 mm 0,0 UV-I 0 W/m 0,8 C 3,8 C 8,0 km/h (2 Bft) 96,23 %
04.03.2017 03:02 3,8 C 81 % 1003,4 hPa 0,0 l/m 5,2 km/h (1 Bft) NO 35 0 min 0,000 mm 0,0 UV-I 0 W/m 0,8 C 3,8 C 6,4 km/h (2 Bft) 98,00 %
04.03.2017 03:04 3,9 C 81 % 1003,5 hPa 0,0 l/m 4,5 km/h (1 Bft) NO 36 0 min 0,000 mm 0,0 UV-I 0 W/m 0,9 C 3,9 C 6,4 km/h (2 Bft) 96,00 %
04.03.2017 03:06 4,1 C 81 % 1003,4 hPa 0,0 l/m 3,9 km/h (1 Bft) NO 36 0 min 0,000 mm 0,0 UV-I 0 W/m 1,1 C 4,1 C 4,8 km/h (1 Bft) 97,56 %
04.03.2017 03:08 4,2 C 80 % 1003,4 hPa 0,0 l/m 3,6 km/h (1 Bft) NO 36 0 min 0,000 mm 0,0 UV-I 0 W/m 1,1 C 4,2 C 4,8 km/h (1 Bft) 90,00 %
04.03.2017 03:10 4,2 C 80 % 1003,4 hPa 0,0 l/m 2,9 km/h (1 Bft) NO 36 0 min 0,000 mm 0,0 UV-I 0 W/m 1,1 C 4,2 C 3,2 km/h (1 Bft) 95,74 %
04.03.2017 03:12 4,2 C 80 % 1003,5 hPa 0,0 l/m 0,8 km/h (0 Bft) NO 36 0 min 0,000 mm 0,0 UV-I 0 W/m 1,1 C 4,2 C 3,2 km/h (1 Bft) 97,87 %
04.03.2017 03:14 3,9 C 80 % 1003,5 hPa 0,0 l/m 0,6 km/h (0 Bft) NO 36 0 min 0,000 mm 0,0 UV-I 0 W/m 0,8 C 3,9 C 1,6 km/h (1 Bft) 96,00 %
04.03.2017 03:16 3,6 C 81 % 1003,4 hPa 0,0 l/m 0,6 km/h (0 Bft) NO 36 0 min 0,000 mm 0,0 UV-I 0 W/m 0,7 C 3,6 C 1,6 km/h (1 Bft) 97,87 %
04.03.2017 03:18 3,2 C 82 % 1003,4 hPa 0,0 l/m 1,6 km/h (1 Bft) NO 36 0 min 0,000 mm 0,0 UV-I 0 W/m 0,4 C 3,2 C 3,2 km/h (1 Bft) 95,12 %
04.03.2017 03:20 2,9 C 84 % 1003,3 hPa 0,0 l/m 2,9 km/h (1 Bft) NO 36 0 min 0,000 mm 0,0 UV-I 0 W/m 0,5 C 2,9 C 3,2 km/h (1 Bft) 96,00 %
04.03.2017 03:22 3,0 C 85 % 1003,3 hPa 0,0 l/m 4,2 km/h (1 Bft) NO 36 0 min 0,000 mm 0,0 UV-I 0 W/m 0,7 C 3,0 C 6,4 km/h (2 Bft) 95,74 %
04.03.2017 03:24 3,4 C 85 % 1003,2 hPa 0,0 l/m 5,0 km/h (1 Bft) NO 36 0 min 0,000 mm 0,0 UV-I 0 W/m 1,1 C 3,4 C 6,4 km/h (2 Bft) 95,74 %
04.03.2017 03:26 3,6 C 83 % 1003,2 hPa 0,0 l/m 4,8 km/h (1 Bft) NO 36 0 min 0,000 mm 0,0 UV-I 0 W/m 1,0 C 3,6 C 6,4 km/h (2 Bft) 95,74 %
04.03.2017 03:28 3,8 C 82 % 1003,1 hPa 0,0 l/m 4,5 km/h (1 Bft) NO 36 0 min 0,000 mm 0,0 UV-I 0 W/m 1,0 C 3,8 C 4,8 km/h (1 Bft) 93,62 %
04.03.2017 03:30 3,9 C 81 % 1003,1 hPa 0,0 l/m 5,9 km/h (2 Bft) NO 36 0 min 0,000 mm 0,0 UV-I 0 W/m 0,9 C 3,9 C 8,0 km/h (2 Bft) 97,62 %
04.03.2017 03:32 3,9 C 81 % 1003,1 hPa 0,0 l/m 5,7 km/h (1 Bft) NO 36 0 min 0,000 mm 0,0 UV-I 0 W/m 0,9 C 3,9 C 8,0 km/h (2 Bft) 98,08 %
04.03.2017 03:34 3,9 C 81 % 1003,1 hPa 0,0 l/m 3,8 km/h (1 Bft) NO 36 0 min 0,000 mm 0,0 UV-I 0 W/m 0,9 C 3,9 C 6,4 km/h (2 Bft) 100,00 %
04.03.2017 03:36 4,0 C 81 % 1003,0 hPa 0,0 l/m 4,0 km/h (1 Bft) NO 36 0 min 0,000 mm 0,0 UV-I 0 W/m 1,0 C 4,0 C 6,4 km/h (2 Bft) 98,00 %
04.03.2017 03:38 3,9 C 81 % 1003,0 hPa 0,0 l/m 3,9 km/h (1 Bft) NO 36 0 min 0,000 mm 0,0 UV-I 0 W/m 0,9 C 3,9 C 4,8 km/h (1 Bft) 100,00 %
04.03.2017 03:40 3,9 C 81 % 1003,0 hPa 0,0 l/m 3,4 km/h (1 Bft) NO 36 0 min 0,000 mm 0,0 UV-I 0 W/m 0,9 C 3,9 C 4,8 km/h (1 Bft) 100,00 %
04.03.2017 03:42 3,9 C 81 % 1003,0 hPa 0,0 l/m 3,7 km/h (1 Bft) NO 36 0 min 0,000 mm 0,0 UV-I 0 W/m 0,9 C 3,9 C 4,8 km/h (1 Bft) 100,00 %
04.03.2017 03:44 3,9 C 81 % 1003,0 hPa 0,0 l/m 3,1 km/h (1 Bft) NO 36 0 min 0,000 mm 0,0 UV-I 0 W/m 0,9 C 3,9 C 4,8 km/h (1 Bft) 100,00 %
04.03.2017 03:46 3,9 C 81 % 1003,0 hPa 0,0 l/m 3,2 km/h (1 Bft) NO 36 0 min 0,000 mm 0,0 UV-I 0 W/m 0,9 C 3,9 C 4,8 km/h (1 Bft) 97,87 %
04.03.2017 03:48 3,8 C 81 % 1002,9 hPa 0,0 l/m 1,2 km/h (1 Bft) NO 36 0 min 0,000 mm 0,0 UV-I 0 W/m 0,8 C 3,8 C 3,2 km/h (1 Bft) 100,00 %
04.03.2017 03:50 3,7 C 81 % 1002,9 hPa 0,0 l/m 0,1 km/h (0 Bft) NO 36 0 min 0,000 mm 0,0 UV-I 0 W/m 0,7 C 3,7 C 1,6 km/h (1 Bft) 100,00 %
04.03.2017 03:52 3,4 C 82 % 1003,0 hPa 0,0 l/m 0,0 km/h (0 Bft) NO 36 0 min 0,000 mm 0,0 UV-I 0 W/m 0,6 C 3,4 C 0,0 km/h (0 Bft) 98,39 %
04.03.2017 03:54 3,2 C 82 % 1002,9 hPa 0,0 l/m 0,0 km/h (0 Bft) NO 36 0 min 0,000 mm 0,0 UV-I 0 W/m 0,4 C 3,2 C 0,0 km/h (0 Bft) 100,00 %
04.03.2017 03:56 2,9 C 83 % 1002,9 hPa 0,0 l/m 1,4 km/h (1 Bft) NO 36 0 min 0,000 mm 0,0 UV-I 0 W/m 0,3 C 2,9 C 3,2 km/h (1 Bft) 100,00 %
04.03.2017 03:58 2,7 C 84 % 1002,9 hPa 0,0 l/m 2,7 km/h (1 Bft) NO 36 0 min 0,000 mm 0,0 UV-I 0 W/m 0,3 C 2,7 C 3,2 km/h (1 Bft) 96,77 %
04.03.2017 04:00 2,4 C 85 % 1002,9 hPa 0,0 l/m 2,8 km/h (1 Bft) NO 36 0 min 0,000 mm 0,0 UV-I 0 W/m 0,1 C 2,4 C 3,2 km/h (1 Bft) 97,44 %
04.03.2017 04:02 2,4 C 86 % 1002,9 hPa 0,0 l/m 2,6 km/h (1 Bft) NO 36 0 min 0,000 mm 0,0 UV-I 0 W/m 0,3 C 2,4 C 3,2 km/h (1 Bft) 96,55 %
04.03.2017 04:04 2,3 C 86 % 1002,9 hPa 0,0 l/m 2,0 km/h (1 Bft) NO 36 0 min 0,000 mm 0,0 UV-I 0 W/m 0,2 C 2,3 C 3,2 km/h (1 Bft) 97,87 %
04.03.2017 04:06 2,3 C 87 % 1002,9 hPa 0,0 l/m 4,3 km/h (1 Bft) NO 36 0 min 0,000 mm 0,0 UV-I 0 W/m 0,4 C 2,3 C 4,8 km/h (1 Bft) 97,87 %
04.03.2017 04:09 2,8 C 87 % 1002,9 hPa 0,0 l/m 4,5 km/h (1 Bft) N-NO 32 0 min 0,000 mm 0,0 UV-I 0 W/m 0,9 C 2,8 C 6,4 km/h (2 Bft) 98,65 %
04.03.2017 04:10 3,0 C 86 % 1002,9 hPa 0,0 l/m 4,7 km/h (1 Bft) N-NO 32 0 min 0,000 mm 0,0 UV-I 0 W/m 0,9 C 3,0 C 6,4 km/h (2 Bft) 100,00 %
04.03.2017 04:12 3,4 C 85 % 1002,9 hPa 0,0 l/m 3,7 km/h (1 Bft) N-NO 32 0 min 0,000 mm 0,0 UV-I 0 W/m 1,1 C 3,4 C 4,8 km/h (1 Bft) 98,00 %
04.03.2017 04:14 3,7 C 83 % 1002,9 hPa 0,0 l/m 3,1 km/h (1 Bft) N-NO 32 0 min 0,000 mm 0,0 UV-I 0 W/m 1,1 C 3,7 C 4,8 km/h (1 Bft) 97,87 %
04.03.2017 04:16 3,7 C 82 % 1002,9 hPa 0,0 l/m 3,4 km/h (1 Bft) N-NO 33 0 min 0,000 mm 0,0 UV-I 0 W/m 0,9 C 3,7 C 4,8 km/h (1 Bft) 97,56 %
04.03.2017 04:18 3,7 C 83 % 1002,9 hPa 0,0 l/m 2,6 km/h (1 Bft) N-NO 32 0 min 0,000 mm 0,0 UV-I 0 W/m 1,1 C 3,7 C 3,2 km/h (1 Bft) 100,00 %
04.03.2017 04:20 3,5 C 82 % 1002,9 hPa 0,0 l/m 0,5 km/h (0 Bft) N-NO 32 0 min 0,000 mm 0,0 UV-I 0 W/m 0,7 C 3,5 C 3,2 km/h (1 Bft) 100,00 %
04.03.2017 04:22 3,3 C 83 % 1002,9 hPa 0,0 l/m 0,0 km/h (0 Bft) N-NO 33 0 min 0,000 mm 0,0 UV-I 0 W/m 0,7 C 3,3 C 0,0 km/h (0 Bft) 100,00 %
04.03.2017 04:24 2,9 C 83 % 1002,9 hPa 0,0 l/m 3,1 km/h (1 Bft) N-NO 33 0 min 0,000 mm 0,0 UV-I 0 W/m 0,3 C 2,9 C 4,8 km/h (1 Bft) 98,00 %
04.03.2017 04:26 2,7 C 85 % 1002,8 hPa 0,0 l/m 3,9 km/h (1 Bft) NO 36 0 min 0,000 mm 0,0 UV-I 0 W/m 0,4 C 2,7 C 4,8 km/h (1 Bft) 100,00 %
04.03.2017 04:28 2,8 C 86 % 1002,7 hPa 0,0 l/m 3,3 km/h (1 Bft) NO 36 0 min 0,000 mm 0,0 UV-I 0 W/m 0,7 C 2,8 C 4,8 km/h (1 Bft) 97,87 %
04.03.2017 04:30 2,9 C 85 % 1002,7 hPa 0,0 l/m 2,3 km/h (1 Bft) NO 36 0 min 0,000 mm 0,0 UV-I 0 W/m 0,6 C 2,9 C 4,8 km/h (1 Bft) 98,00 %
04.03.2017 04:32 2,9 C 85 % 1002,7 hPa 0,0 l/m 0,9 km/h (0 Bft) NO 36 0 min 0,000 mm 0,0 UV-I 0 W/m 0,6 C 2,9 C 3,2 km/h (1 Bft) 97,56 %
04.03.2017 04:34 2,7 C 85 % 1002,7 hPa 0,0 l/m 0,0 km/h (0 Bft) NO 36 0 min 0,000 mm 0,0 UV-I 0 W/m 0,4 C 2,7 C 0,0 km/h (0 Bft) 100,00 %
04.03.2017 04:36 2,5 C 85 % 1002,7 hPa 0,0 l/m 0,0 km/h (0 Bft) NO 36 0 min 0,000 mm 0,0 UV-I 0 W/m 0,2 C 2,5 C 0,0 km/h (0 Bft) 98,00 %
04.03.2017 04:38 2,4 C 86 % 1002,7 hPa 0,0 l/m 0,2 km/h (0 Bft) NO 36 0 min 0,000 mm 0,0 UV-I 0 W/m 0,3 C 2,4 C 1,6 km/h (1 Bft) 98,00 %
04.03.2017 04:40 2,6 C 87 % 1002,7 hPa 0,0 l/m 2,4 km/h (1 Bft) NO 36 0 min 0,000 mm 0,0 UV-I 0 W/m 0,7 C 2,6 C 3,2 km/h (1 Bft) 97,87 %
04.03.2017 04:42 3,0 C 86 % 1002,6 hPa 0,0 l/m 3,4 km/h (1 Bft) NO 36 0 min 0,000 mm 0,0 UV-I 0 W/m 0,9 C 3,0 C 4,8 km/h (1 Bft) 95,12 %
04.03.2017 04:44 3,2 C 84 % 1002,6 hPa 0,0 l/m 2,6 km/h (1 Bft) NO 36 0 min 0,000 mm 0,0 UV-I 0 W/m 0,8 C 3,2 C 4,8 km/h (1 Bft) 98,11 %
04.03.2017 04:46 3,0 C 83 % 1002,6 hPa 0,0 l/m 0,1 km/h (0 Bft) NO 36 0 min 0,000 mm 0,0 UV-I 0 W/m 0,4 C 3,0 C 1,6 km/h (1 Bft) 94,87 %
04.03.2017 04:48 2,8 C 84 % 1002,6 hPa 0,0 l/m 2,1 km/h (1 Bft) NO 36 0 min 0,000 mm 0,0 UV-I 0 W/m 0,4 C 2,8 C 3,2 km/h (1 Bft) 96,15 %
04.03.2017 04:50 2,6 C 85 % 1002,5 hPa 0,0 l/m 2,4 km/h (1 Bft) NO 36 0 min 0,000 mm 0,0 UV-I 0 W/m 0,3 C 2,6 C 3,2 km/h (1 Bft) 97,22 %
04.03.2017 04:52 2,4 C 86 % 1002,5 hPa 0,0 l/m 2,0 km/h (1 Bft) NO 36 0 min 0,000 mm 0,0 UV-I 0 W/m 0,3 C 2,4 C 3,2 km/h (1 Bft) 96,43 %
04.03.2017 04:54 2,3 C 86 % 1002,4 hPa 0,0 l/m 0,2 km/h (0 Bft) NO 36 0 min 0,000 mm 0,0 UV-I 0 W/m 0,2 C 2,3 C 1,6 km/h (1 Bft) 97,56 %
04.03.2017 04:56 2,2 C 87 % 1002,4 hPa 0,0 l/m 0,1 km/h (0 Bft) NO 36 0 min 0,000 mm 0,0 UV-I 0 W/m 0,3 C 2,2 C 1,6 km/h (1 Bft) 96,00 %
04.03.2017 04:59 1,9 C 87 % 1002,5 hPa 0,0 l/m 3,1 km/h (1 Bft) O 89 0 min 0,000 mm 0,0 UV-I 0 W/m -0,0 C 1,9 C 4,8 km/h (1 Bft) 97,26 %
04.03.2017 05:00 1,8 C 87 % 1002,5 hPa 0,0 l/m 5,0 km/h (1 Bft) SO 129 0 min 0,000 mm 0,0 UV-I 0 W/m -0,1 C 1,8 C 6,4 km/h (2 Bft) 100,00 %
04.03.2017 05:02 1,8 C 88 % 1002,5 hPa 0,0 l/m 3,3 km/h (1 Bft) SO 129 0 min 0,000 mm 0,0 UV-I 0 W/m 0,0 C 1,8 C 4,8 km/h (1 Bft) 95,12 %
04.03.2017 05:04 1,8 C 89 % 1002,5 hPa 0,0 l/m 0,5 km/h (0 Bft) SO 129 0 min 0,000 mm 0,0 UV-I 0 W/m 0,2 C 1,8 C 1,6 km/h (1 Bft) 92,86 %
04.03.2017 05:06 1,9 C 89 % 1002,6 hPa 0,0 l/m 0,0 km/h (0 Bft) SO 129 0 min 0,000 mm 0,0 UV-I 0 W/m 0,3 C 1,9 C 0,0 km/h (0 Bft) 94,74 %
04.03.2017 05:08 2,0 C 88 % 1002,6 hPa 0,0 l/m 0,2 km/h (0 Bft) SO 129 0 min 0,000 mm 0,0 UV-I 0 W/m 0,2 C 2,0 C 1,6 km/h (1 Bft) 95,74 %
04.03.2017 05:10 2,0 C 88 % 1002,6 hPa 0,0 l/m 1,2 km/h (1 Bft) SO 129 0 min 0,000 mm 0,0 UV-I 0 W/m 0,2 C 2,0 C 3,2 km/h (1 Bft) 94,64 %
04.03.2017 05:12 1,9 C 88 % 1002,5 hPa 0,0 l/m 1,1 km/h (1 Bft) SO 129 0 min 0,000 mm 0,0 UV-I 0 W/m 0,1 C 1,9 C 1,6 km/h (1 Bft) 93,62 %
04.03.2017 05:14 1,8 C 88 % 1002,5 hPa 0,0 l/m 2,0 km/h (1 Bft) SO 129 0 min 0,000 mm 0,0 UV-I 0 W/m 0,0 C 1,8 C 3,2 km/h (1 Bft) 94,74 %
04.03.2017 05:16 1,8 C 88 % 1002,5 hPa 0,0 l/m 1,5 km/h (1 Bft) SO 129 0 min 0,000 mm 0,0 UV-I 0 W/m 0,0 C 1,8 C 3,2 km/h (1 Bft) 90,91 %
04.03.2017 05:18 1,8 C 88 % 1002,5 hPa 0,0 l/m 0,4 km/h (0 Bft) SO 129 0 min 0,000 mm 0,0 UV-I 0 W/m 0,0 C 1,8 C 1,6 km/h (1 Bft) 94,00 %
04.03.2017 05:20 1,7 C 88 % 1002,6 hPa 0,0 l/m 1,8 km/h (1 Bft) SO 131 0 min 0,000 mm 0,0 UV-I 0 W/m -0,1 C 1,7 C 6,4 km/h (2 Bft) 96,00 %
04.03.2017 05:22 1,5 C 88 % 1002,6 hPa 0,0 l/m 5,9 km/h (2 Bft) S-SO 159 0 min 0,000 mm 0,0 UV-I 0 W/m -0,3 C 1,5 C 8,0 km/h (2 Bft) 92,45 %
04.03.2017 05:24 1,3 C 88 % 1002,5 hPa 0,0 l/m 4,7 km/h (1 Bft) S 175 0 min 0,000 mm 0,0 UV-I 0 W/m -0,5 C 1,3 C 8,0 km/h (2 Bft) 97,56 %
04.03.2017 05:26 1,2 C 89 % 1002,4 hPa 0,0 l/m 1,0 km/h (0 Bft) S 175 0 min 0,000 mm 0,0 UV-I 0 W/m -0,4 C 1,2 C 3,2 km/h (1 Bft) 98,00 %
04.03.2017 05:28 1,2 C 89 % 1002,4 hPa 0,0 l/m 0,1 km/h (0 Bft) S 175 0 min 0,000 mm 0,0 UV-I 0 W/m -0,4 C 1,2 C 1,6 km/h (1 Bft) 95,74 %
04.03.2017 05:30 1,1 C 90 % 1002,4 hPa 0,0 l/m 0,0 km/h (0 Bft) S 175 0 min 0,000 mm 0,0 UV-I 0 W/m -0,4 C 1,1 C 1,6 km/h (1 Bft) 98,00 %
04.03.2017 05:32 1,3 C 91 % 1002,5 hPa 0,0 l/m 0,0 km/h (0 Bft) S 175 0 min 0,000 mm 0,0 UV-I 0 W/m -0,0 C 1,3 C 0,0 km/h (0 Bft) 100,00 %
04.03.2017 05:34 1,5 C 91 % 1002,4 hPa 0,0 l/m 0,0 km/h (0 Bft) S 175 0 min 0,000 mm 0,0 UV-I 0 W/m 0,2 C 1,5 C 1,6 km/h (1 Bft) 94,34 %
04.03.2017 05:36 1,4 C 90 % 1002,3 hPa 0,0 l/m 2,3 km/h (1 Bft) S 175 0 min 0,000 mm 0,0 UV-I 0 W/m -0,1 C 1,4 C 4,8 km/h (1 Bft) 100,00 %
04.03.2017 05:38 1,4 C 90 % 1002,2 hPa 0,0 l/m 4,3 km/h (1 Bft) SO 136 0 min 0,000 mm 0,0 UV-I 0 W/m -0,1 C 1,4 C 6,4 km/h (2 Bft) 95,74 %
04.03.2017 05:40 1,3 C 89 % 1002,1 hPa 0,0 l/m 4,7 km/h (1 Bft) SO 132 0 min 0,000 mm 0,0 UV-I 0 W/m -0,3 C 1,3 C 6,4 km/h (2 Bft) 98,11 %
04.03.2017 05:42 1,2 C 90 % 1002,1 hPa 0,0 l/m 3,5 km/h (1 Bft) SO 130 0 min 0,000 mm 0,0 UV-I 0 W/m -0,3 C 1,2 C 4,8 km/h (1 Bft) 97,87 %
04.03.2017 05:44 1,2 C 90 % 1002,2 hPa 0,0 l/m 1,6 km/h (1 Bft) SO 130 0 min 0,000 mm 0,0 UV-I 0 W/m -0,3 C 1,2 C 3,2 km/h (1 Bft) 97,37 %
04.03.2017 05:46 1,6 C 91 % 1002,2 hPa 0,0 l/m 2,3 km/h (1 Bft) SO 130 0 min 0,000 mm 0,0 UV-I 0 W/m 0,3 C 1,6 C 3,2 km/h (1 Bft) 96,23 %
04.03.2017 05:48 1,6 C 89 % 1002,2 hPa 0,0 l/m 0,3 km/h (0 Bft) SO 130 0 min 0,000 mm 0,0 UV-I 0 W/m -0,0 C 1,6 C 1,6 km/h (1 Bft) 97,87 %
04.03.2017 05:50 1,4 C 89 % 1002,2 hPa 0,0 l/m 0,0 km/h (0 Bft) SO 130 0 min 0,000 mm 0,0 UV-I 0 W/m -0,2 C 1,4 C 0,0 km/h (0 Bft) 96,00 %
04.03.2017 05:52 1,1 C 88 % 1002,2 hPa 0,0 l/m 0,3 km/h (0 Bft) SO 130 0 min 0,000 mm 0,0 UV-I 0 W/m -0,7 C 1,1 C 1,6 km/h (1 Bft) 98,00 %
04.03.2017 05:54 0,8 C 89 % 1002,2 hPa 0,0 l/m 0,8 km/h (0 Bft) SO 130 0 min 0,000 mm 0,0 UV-I 0 W/m -0,8 C 0,8 C 3,2 km/h (1 Bft) 97,87 %
04.03.2017 05:56 0,9 C 91 % 1002,2 hPa 0,0 l/m 2,1 km/h (1 Bft) SO 130 0 min 0,000 mm 0,0 UV-I 0 W/m -0,4 C 0,9 C 4,8 km/h (1 Bft) 97,37 %
04.03.2017 05:58 1,1 C 91 % 1002,3 hPa 0,0 l/m 3,5 km/h (1 Bft) S-SO 155 0 min 0,000 mm 0,0 UV-I 0 W/m -0,2 C 1,1 C 4,8 km/h (1 Bft) 98,21 %
04.03.2017 06:00 1,2 C 91 % 1002,3 hPa 0,0 l/m 2,6 km/h (1 Bft) S-SO 159 0 min 0,000 mm 0,0 UV-I 0 W/m -0,1 C 1,2 C 4,8 km/h (1 Bft) 100,00 %
04.03.2017 06:02 1,1 C 90 % 1002,3 hPa 0,0 l/m 3,7 km/h (1 Bft) S-SO 159 0 min 0,000 mm 0,0 UV-I 0 W/m -0,4 C 1,1 C 6,4 km/h (2 Bft) 97,87 %
04.03.2017 06:04 1,0 C 90 % 1002,2 hPa 0,0 l/m 2,3 km/h (1 Bft) S-SO 160 0 min 0,000 mm 0,0 UV-I 0 W/m -0,5 C 1,0 C 6,4 km/h (2 Bft) 96,00 %
04.03.2017 06:06 0,8 C 90 % 1002,2 hPa 0,0 l/m 2,8 km/h (1 Bft) S-SO 153 0 min 0,000 mm 0,0 UV-I 0 W/m -0,6 C 0,8 C 6,4 km/h (2 Bft) 94,87 %
04.03.2017 06:08 0,7 C 90 % 1002,2 hPa 0,0 l/m 3,6 km/h (1 Bft) SO 127 0 min 0,000 mm 0,0 UV-I 0 W/m -0,7 C 0,7 C 8,0 km/h (2 Bft) 100,00 %
04.03.2017 06:10 0,7 C 91 % 1002,2 hPa 0,0 l/m 2,7 km/h (1 Bft) SO 127 0 min 0,000 mm 0,0 UV-I 0 W/m -0,6 C 0,7 C 4,8 km/h (1 Bft) 97,22 %
04.03.2017 06:12 0,7 C 92 % 1002,2 hPa 0,0 l/m 0,2 km/h (0 Bft) SO 127 0 min 0,000 mm 0,0 UV-I 0 W/m -0,4 C 0,7 C 1,6 km/h (1 Bft) 95,74 %
04.03.2017 06:14 0,8 C 92 % 1002,2 hPa 0,0 l/m 0,1 km/h (0 Bft) SO 127 0 min 0,000 mm 0,0 UV-I 0 W/m -0,3 C 0,8 C 1,6 km/h (1 Bft) 97,87 %
04.03.2017 06:16 0,9 C 91 % 1002,2 hPa 0,0 l/m 0,5 km/h (0 Bft) SO 127 0 min 0,000 mm 0,0 UV-I 0 W/m -0,4 C 0,9 C 1,6 km/h (1 Bft) 96,43 %
04.03.2017 06:18 0,8 C 91 % 1002,1 hPa 0,0 l/m 0,0 km/h (0 Bft) SO 127 0 min 0,000 mm 0,0 UV-I 0 W/m -0,5 C 0,8 C 0,0 km/h (0 Bft) 94,74 %
04.03.2017 06:20 0,8 C 91 % 1002,0 hPa 0,0 l/m 1,2 km/h (1 Bft) SO 126 0 min 0,000 mm 0,0 UV-I 0 W/m -0,5 C 0,8 C 3,2 km/h (1 Bft) 90,00 %
04.03.2017 06:22 0,9 C 92 % 1002,0 hPa 0,0 l/m 2,8 km/h (1 Bft) SO 126 0 min 0,000 mm 0,0 UV-I 0 W/m -0,2 C 0,9 C 4,8 km/h (1 Bft) 100,00 %
04.03.2017 06:24 0,9 C 91 % 1002,0 hPa 0,0 l/m 2,8 km/h (1 Bft) SO 126 0 min 0,000 mm 0,0 UV-I 0 W/m -0,4 C 0,9 C 4,8 km/h (1 Bft) 95,83 %
04.03.2017 06:26 0,9 C 91 % 1002,0 hPa 0,0 l/m 0,8 km/h (0 Bft) SO 126 0 min 0,000 mm 0,0 UV-I 0 W/m -0,4 C 0,9 C 3,2 km/h (1 Bft) 100,00 %
04.03.2017 06:28 0,8 C 90 % 1002,0 hPa 0,0 l/m 1,1 km/h (1 Bft) SO 126 0 min 0,000 mm 0,0 UV-I 0 W/m -0,6 C 0,8 C 3,2 km/h (1 Bft) 100,00 %
04.03.2017 06:30 0,7 C 91 % 1002,1 hPa 0,0 l/m 3,2 km/h (1 Bft) O 87 0 min 0,000 mm 0,0 UV-I 1 W/m -0,6 C 0,7 C 4,8 km/h (1 Bft) 97,37 %
04.03.2017 06:32 0,9 C 92 % 1002,1 hPa 0,0 l/m 4,9 km/h (1 Bft) NO 55 0 min 0,000 mm 0,0 UV-I 5 W/m -0,2 C 0,9 C 8,0 km/h (2 Bft) 100,00 %
04.03.2017 06:34 1,1 C 92 % 1002,1 hPa 0,0 l/m 3,5 km/h (1 Bft) NO 55 0 min 0,000 mm 0,0 UV-I 5 W/m -0,1 C 1,1 C 4,8 km/h (1 Bft) 100,00 %
04.03.2017 06:36 1,0 C 90 % 1002,1 hPa 0,0 l/m 0,9 km/h (0 Bft) NO 55 0 min 0,000 mm 0,0 UV-I 5 W/m -0,5 C 1,0 C 3,2 km/h (1 Bft) 97,87 %
04.03.2017 06:38 1,0 C 91 % 1002,1 hPa 0,0 l/m 3,0 km/h (1 Bft) NO 55 0 min 0,000 mm 0,0 UV-I 5 W/m -0,3 C 1,0 C 4,8 km/h (1 Bft) 97,87 %
04.03.2017 06:40 1,1 C 91 % 1002,1 hPa 0,0 l/m 2,3 km/h (1 Bft) NO 55 0 min 0,000 mm 0,0 UV-I 7 W/m -0,2 C 1,1 C 4,8 km/h (1 Bft) 97,87 %
04.03.2017 06:42 1,1 C 90 % 1002,2 hPa 0,0 l/m 0,0 km/h (0 Bft) NO 55 0 min 0,000 mm 0,0 UV-I 7 W/m -0,4 C 1,1 C 0,0 km/h (0 Bft) 96,08 %
04.03.2017 06:44 0,8 C 89 % 1002,1 hPa 0,0 l/m 1,2 km/h (1 Bft) NO 55 0 min 0,000 mm 0,0 UV-I 9 W/m -0,8 C 0,8 C 4,8 km/h (1 Bft) 100,00 %
04.03.2017 06:46 0,7 C 90 % 1002,1 hPa 0,0 l/m 1,4 km/h (1 Bft) NO 55 0 min 0,000 mm 0,0 UV-I 10 W/m -0,7 C 0,7 C 3,2 km/h (1 Bft) 96,00 %
04.03.2017 06:48 0,6 C 91 % 1002,1 hPa 0,0 l/m 2,4 km/h (1 Bft) NO 55 0 min 0,000 mm 0,0 UV-I 11 W/m -0,7 C 0,6 C 3,2 km/h (1 Bft) 98,11 %
04.03.2017 06:50 0,6 C 91 % 1002,1 hPa 0,0 l/m 1,8 km/h (1 Bft) NO 55 2 min 0,000 mm 0,0 UV-I 13 W/m -0,7 C 0,6 C 3,2 km/h (1 Bft) 94,44 %
04.03.2017 06:52 0,7 C 92 % 1002,1 hPa 0,0 l/m 2,1 km/h (1 Bft) NO 55 2 min 0,000 mm 0,0 UV-I 15 W/m -0,4 C 0,7 C 3,2 km/h (1 Bft) 97,92 %
04.03.2017 06:54 1,1 C 93 % 1002,0 hPa 0,0 l/m 2,0 km/h (1 Bft) NO 55 2 min 0,000 mm 0,0 UV-I 17 W/m 0,1 C 1,1 C 3,2 km/h (1 Bft) 97,87 %
04.03.2017 06:56 1,4 C 92 % 1002,0 hPa 0,0 l/m 3,6 km/h (1 Bft) O-NO 75 0 min 0,000 mm 0,0 UV-I 19 W/m 0,2 C 1,4 C 6,4 km/h (2 Bft) 97,87 %
04.03.2017 06:58 1,6 C 91 % 1002,0 hPa 0,0 l/m 3,1 km/h (1 Bft) O-NO 71 0 min 0,000 mm 0,0 UV-I 20 W/m 0,3 C 1,6 C 4,8 km/h (1 Bft) 97,87 %
04.03.2017 07:00 1,6 C 90 % 1002,0 hPa 0,0 l/m 2,2 km/h (1 Bft) O-NO 75 0 min 0,000 mm 0,0 UV-I 23 W/m 0,1 C 1,6 C 3,2 km/h (1 Bft) 100,00 %
04.03.2017 07:02 1,7 C 90 % 1002,1 hPa 0,0 l/m 2,7 km/h (1 Bft) O-NO 75 0 min 0,000 mm 0,0 UV-I 26 W/m 0,2 C 1,7 C 4,8 km/h (1 Bft) 100,00 %
04.03.2017 07:04 1,7 C 90 % 1002,1 hPa 0,0 l/m 1,9 km/h (1 Bft) O-NO 75 0 min 0,000 mm 0,0 UV-I 27 W/m 0,2 C 1,7 C 3,2 km/h (1 Bft) 100,00 %
04.03.2017 07:06 1,8 C 90 % 1002,1 hPa 0,0 l/m 2,7 km/h (1 Bft) O 83 0 min 0,000 mm 0,0 UV-I 29 W/m 0,3 C 1,8 C 4,8 km/h (1 Bft) 97,87 %
04.03.2017 07:08 1,8 C 89 % 1002,2 hPa 0,0 l/m 1,5 km/h (1 Bft) O 83 0 min 0,000 mm 0,0 UV-I 33 W/m 0,2 C 1,8 C 3,2 km/h (1 Bft) 98,00 %
04.03.2017 07:10 1,7 C 88 % 1002,1 hPa 0,0 l/m 2,3 km/h (1 Bft) O 83 0 min 0,000 mm 0,0 UV-I 37 W/m -0,1 C 1,7 C 3,2 km/h (1 Bft) 100,00 %
04.03.2017 07:12 1,4 C 89 % 1002,1 hPa 0,0 l/m 1,6 km/h (1 Bft) O 83 0 min 0,000 mm 0,0 UV-I 41 W/m -0,2 C 1,4 C 4,8 km/h (1 Bft) 92,11 %
04.03.2017 07:14 1,2 C 89 % 1002,1 hPa 0,0 l/m 2,7 km/h (1 Bft) O 83 2 min 0,000 mm 0,0 UV-I 48 W/m -0,4 C 1,2 C 3,2 km/h (1 Bft) 97,87 %
04.03.2017 07:16 1,3 C 91 % 1002,1 hPa 0,0 l/m 2,9 km/h (1 Bft) O 83 2 min 0,000 mm 0,0 UV-I 57 W/m -0,0 C 1,3 C 4,8 km/h (1 Bft) 93,62 %
04.03.2017 07:18 1,6 C 91 % 1002,0 hPa 0,0 l/m 4,3 km/h (1 Bft) O-NO 68 2 min 0,000 mm 0,0 UV-I 61 W/m 0,3 C 1,6 C 6,4 km/h (2 Bft) 96,00 %
04.03.2017 07:20 1,9 C 91 % 1002,0 hPa 0,0 l/m 3,5 km/h (1 Bft) O-NO 78 2 min 0,000 mm 0,0 UV-I 70 W/m 0,6 C 1,9 C 8,0 km/h (2 Bft) 96,23 %
04.03.2017 07:22 2,1 C 90 % 1002,0 hPa 0,0 l/m 4,7 km/h (1 Bft) O-NO 68 2 min 0,000 mm 0,0 UV-I 75 W/m 0,6 C 2,1 C 6,4 km/h (2 Bft) 97,56 %
04.03.2017 07:24 2,3 C 89 % 1002,1 hPa 0,0 l/m 4,8 km/h (1 Bft) O-NO 58 2 min 0,000 mm 0,0 UV-I 77 W/m 0,7 C 2,3 C 6,4 km/h (2 Bft) 93,62 %
04.03.2017 07:26 2,3 C 89 % 1002,0 hPa 0,0 l/m 4,7 km/h (1 Bft) NO 46 2 min 0,000 mm 0,0 UV-I 81 W/m 0,7 C 2,3 C 6,4 km/h (2 Bft) 92,00 %
04.03.2017 07:28 2,3 C 89 % 1002,1 hPa 0,0 l/m 5,1 km/h (1 Bft) NO 38 2 min 0,000 mm 0,0 UV-I 77 W/m 0,7 C 2,3 C 9,7 km/h (2 Bft) 100,00 %
04.03.2017 07:30 2,3 C 89 % 1002,1 hPa 0,0 l/m 6,8 km/h (2 Bft) NO 37 2 min 0,000 mm 0,0 UV-I 88 W/m 0,7 C 1,9 C 9,7 km/h (2 Bft) 95,08 %
04.03.2017 07:32 2,4 C 89 % 1002,2 hPa 0,0 l/m 5,8 km/h (2 Bft) O-NO 59 2 min 0,000 mm 0,0 UV-I 100 W/m 0,8 C 2,4 C 8,0 km/h (2 Bft) 93,75 %
04.03.2017 07:34 2,7 C 89 % 1002,1 hPa 0,0 l/m 5,5 km/h (1 Bft) NO 48 2 min 0,000 mm 0,0 UV-I 88 W/m 1,1 C 2,7 C 8,0 km/h (2 Bft) 97,87 %
04.03.2017 07:36 2,7 C 88 % 1002,1 hPa 0,0 l/m 7,6 km/h (2 Bft) NO 43 0 min 0,000 mm 0,0 UV-I 78 W/m 0,9 C 1,6 C 9,7 km/h (2 Bft) 97,37 %
04.03.2017 07:38 2,8 C 89 % 1002,1 hPa 0,0 l/m 6,6 km/h (2 Bft) O 82 0 min 0,000 mm 0,0 UV-I 76 W/m 1,2 C 2,6 C 12,9 km/h (3 Bft) 98,31 %
04.03.2017 07:40 2,8 C 89 % 1002,1 hPa 0,0 l/m 8,9 km/h (2 Bft) O-NO 76 0 min 0,000 mm 0,0 UV-I 85 W/m 1,2 C 0,5 C 12,9 km/h (3 Bft) 95,12 %
04.03.2017 07:42 2,8 C 89 % 1002,2 hPa 0,0 l/m 8,5 km/h (2 Bft) O-NO 71 0 min 0,000 mm 0,0 UV-I 87 W/m 1,2 C 0,9 C 14,5 km/h (3 Bft) 97,56 %
04.03.2017 07:44 2,9 C 89 % 1002,2 hPa 0,0 l/m 8,4 km/h (2 Bft) NO 46 0 min 0,000 mm 0,0 UV-I 91 W/m 1,3 C 1,0 C 11,3 km/h (2 Bft) 92,45 %
04.03.2017 07:46 3,1 C 88 % 1002,1 hPa 0,0 l/m 6,0 km/h (2 Bft) O-NO 67 2 min 0,000 mm 0,0 UV-I 110 W/m 1,3 C 3,1 C 11,3 km/h (2 Bft) 95,12 %
04.03.2017 07:48 3,1 C 88 % 1002,1 hPa 0,0 l/m 5,4 km/h (1 Bft) NO 47 0 min 0,000 mm 0,0 UV-I 97 W/m 1,3 C 3,1 C 8,0 km/h (2 Bft) 96,00 %
04.03.2017 07:50 3,2 C 88 % 1002,1 hPa 0,0 l/m 8,5 km/h (2 Bft) O-NO 62 0 min 0,000 mm 0,0 UV-I 99 W/m 1,4 C 1,3 C 12,9 km/h (3 Bft) 97,87 %
04.03.2017 07:52 3,2 C 88 % 1002,0 hPa 0,0 l/m 8,5 km/h (2 Bft) O-NO 77 0 min 0,000 mm 0,0 UV-I 89 W/m 1,4 C 1,3 C 16,1 km/h (3 Bft) 100,00 %
04.03.2017 07:54 3,3 C 88 % 1002,0 hPa 0,0 l/m 11,6 km/h (2 Bft) O-NO 78 0 min 0,000 mm 0,0 UV-I 104 W/m 1,5 C -0,9 C 17,7 km/h (3 Bft) 100,00 %
04.03.2017 07:56 3,3 C 88 % 1002,1 hPa 0,0 l/m 8,5 km/h (2 Bft) O-NO 67 0 min 0,000 mm 0,0 UV-I 106 W/m 1,5 C 1,4 C 12,9 km/h (3 Bft) 97,87 %
04.03.2017 07:58 3,4 C 88 % 1002,1 hPa 0,0 l/m 9,1 km/h (2 Bft) NO 34 0 min 0,000 mm 0,0 UV-I 93 W/m 1,6 C 1,0 C 14,5 km/h (3 Bft) 97,87 %
04.03.2017 08:00 3,4 C 88 % 1002,1 hPa 0,0 l/m 8,2 km/h (2 Bft) NO 50 0 min 0,026 mm 0,0 UV-I 95 W/m 1,6 C 1,7 C 12,9 km/h (3 Bft) 100,00 %
04.03.2017 08:02 3,4 C 87 % 1002,1 hPa 0,0 l/m 8,9 km/h (2 Bft) O-NO 71 0 min 0,000 mm 0,0 UV-I 100 W/m 1,4 C 1,2 C 12,9 km/h (3 Bft) 97,87 %
04.03.2017 08:04 3,4 C 87 % 1002,0 hPa 0,0 l/m 8,4 km/h (2 Bft) NO 48 0 min 0,000 mm 0,0 UV-I 113 W/m 1,4 C 1,6 C 9,7 km/h (2 Bft) 97,87 %
04.03.2017 08:06 3,3 C 88 % 1001,9 hPa 0,0 l/m 9,7 km/h (2 Bft) O-NO 59 2 min 0,000 mm 0,0 UV-I 131 W/m 1,5 C 0,4 C 16,1 km/h (3 Bft) 97,87 %
04.03.2017 08:08 3,3 C 88 % 1001,9 hPa 0,0 l/m 11,9 km/h (2 Bft) O-NO 57 2 min 0,000 mm 0,0 UV-I 149 W/m 1,5 C -1,1 C 17,7 km/h (3 Bft) 100,00 %
04.03.2017 08:10 3,4 C 88 % 1001,8 hPa 0,0 l/m 16,5 km/h (3 Bft) O-NO 59 2 min 0,000 mm 0,0 UV-I 175 W/m 1,6 C -3,6 C 20,9 km/h (4 Bft) 97,62 %
04.03.2017 08:12 3,5 C 88 % 1001,7 hPa 0,0 l/m 15,4 km/h (3 Bft) NO 54 2 min 0,000 mm 0,0 UV-I 204 W/m 1,7 C -3,0 C 19,3 km/h (3 Bft) 95,12 %
04.03.2017 08:14 3,6 C 88 % 1001,7 hPa 0,0 l/m 14,3 km/h (3 Bft) NO 39 2 min 0,000 mm 0,0 UV-I 213 W/m 1,8 C -2,2 C 17,7 km/h (3 Bft) 98,08 %
04.03.2017 08:16 3,7 C 88 % 1001,7 hPa 0,0 l/m 11,6 km/h (2 Bft) O-NO 59 2 min 0,000 mm 0,0 UV-I 222 W/m 1,9 C -0,5 C 14,5 km/h (3 Bft) 100,00 %
04.03.2017 08:18 3,8 C 88 % 1001,7 hPa 0,0 l/m 12,4 km/h (3 Bft) O-NO 71 2 min 0,000 mm 0,0 UV-I 225 W/m 2,0 C -0,9 C 19,3 km/h (3 Bft) 100,00 %
04.03.2017 08:20 3,8 C 88 % 1001,7 hPa 0,0 l/m 13,6 km/h (3 Bft) O-NO 66 2 min 0,000 mm 0,0 UV-I 232 W/m 2,0 C -1,6 C 17,7 km/h (3 Bft) 97,73 %
04.03.2017 08:22 3,9 C 88 % 1001,7 hPa 0,0 l/m 12,5 km/h (3 Bft) NO 47 2 min 0,000 mm 0,0 UV-I 245 W/m 2,1 C -0,8 C 17,7 km/h (3 Bft) 97,73 %
04.03.2017 08:24 4,1 C 88 % 1001,7 hPa 0,0 l/m 10,4 km/h (2 Bft) O-NO 59 2 min 0,000 mm 0,0 UV-I 254 W/m 2,3 C 0,8 C 14,5 km/h (3 Bft) 94,00 %
04.03.2017 08:26 4,2 C 87 % 1001,7 hPa 0,0 l/m 12,1 km/h (2 Bft) NO 51 2 min 0,000 mm 0,0 UV-I 261 W/m 2,2 C -0,2 C 17,7 km/h (3 Bft) 98,21 %
04.03.2017 08:28 4,4 C 87 % 1001,8 hPa 0,0 l/m 10,7 km/h (2 Bft) O-NO 71 2 min 0,000 mm 0,0 UV-I 267 W/m 2,4 C 0,9 C 16,1 km/h (3 Bft) 100,00 %
04.03.2017 08:30 4,6 C 87 % 1001,8 hPa 0,0 l/m 13,2 km/h (3 Bft) O 86 2 min 0,000 mm 0,0 UV-I 272 W/m 2,6 C -0,4 C 19,3 km/h (3 Bft) 94,64 %
04.03.2017 08:32 4,7 C 86 % 1001,7 hPa 0,0 l/m 10,3 km/h (2 Bft) NO 44 2 min 0,000 mm 0,0 UV-I 278 W/m 2,6 C 1,5 C 17,7 km/h (3 Bft) 93,62 %
04.03.2017 08:34 4,8 C 86 % 1001,8 hPa 0,0 l/m 8,0 km/h (2 Bft) NO 37 2 min 0,000 mm 0,0 UV-I 283 W/m 2,7 C 3,4 C 12,9 km/h (3 Bft) 100,00 %
04.03.2017 08:36 4,9 C 87 % 1001,9 hPa 0,0 l/m 10,6 km/h (2 Bft) NO 47 2 min 0,000 mm 0,0 UV-I 288 W/m 2,9 C 1,5 C 16,1 km/h (3 Bft) 93,62 %
04.03.2017 08:38 4,9 C 87 % 1001,9 hPa 0,0 l/m 8,8 km/h (2 Bft) O-NO 65 2 min 0,000 mm 0,0 UV-I 293 W/m 2,9 C 2,9 C 12,9 km/h (3 Bft) 97,37 %
04.03.2017 08:40 5,0 C 86 % 1001,9 hPa 0,0 l/m 6,9 km/h (2 Bft) NO 39 2 min 0,000 mm 0,2 UV-I 298 W/m 2,9 C 4,6 C 9,7 km/h (2 Bft) 88,00 %
04.03.2017 08:42 5,1 C 86 % 1001,7 hPa 0,0 l/m 8,3 km/h (2 Bft) O-NO 65 2 min 0,000 mm 0,5 UV-I 303 W/m 3,0 C 3,5 C 11,3 km/h (2 Bft) 98,00 %
04.03.2017 08:44 5,2 C 85 % 1001,7 hPa 0,0 l/m 9,6 km/h (2 Bft) O-NO 61 2 min 0,000 mm 0,5 UV-I 309 W/m 2,9 C 2,6 C 14,5 km/h (3 Bft) 100,00 %
04.03.2017 08:46 5,2 C 85 % 1001,6 hPa 0,0 l/m 9,9 km/h (2 Bft) O-NO 68 2 min 0,000 mm 0,5 UV-I 314 W/m 2,9 C 2,4 C 14,5 km/h (3 Bft) 92,45 %
04.03.2017 08:48 5,2 C 85 % 1001,7 hPa 0,0 l/m 12,1 km/h (2 Bft) NO 50 2 min 0,000 mm 0,5 UV-I 319 W/m 2,9 C 0,9 C 17,7 km/h (3 Bft) 100,00 %
04.03.2017 08:50 5,3 C 85 % 1001,7 hPa 0,0 l/m 10,7 km/h (2 Bft) O-NO 68 2 min 0,000 mm 0,5 UV-I 324 W/m 3,0 C 1,9 C 16,1 km/h (3 Bft) 100,00 %
04.03.2017 08:52 5,3 C 85 % 1001,7 hPa 0,0 l/m 13,1 km/h (3 Bft) NO 40 2 min 0,000 mm 0,5 UV-I 328 W/m 3,0 C 0,5 C 19,3 km/h (3 Bft) 97,87 %
04.03.2017 08:54 5,3 C 85 % 1001,6 hPa 0,0 l/m 13,1 km/h (3 Bft) NO 52 2 min 0,000 mm 0,6 UV-I 334 W/m 3,0 C 0,5 C 19,3 km/h (3 Bft) 95,45 %
04.03.2017 08:56 5,4 C 85 % 1001,6 hPa 0,0 l/m 11,3 km/h (2 Bft) O 82 2 min 0,000 mm 0,6 UV-I 338 W/m 3,1 C 1,7 C 16,1 km/h (3 Bft) 98,11 %
04.03.2017 08:58 5,4 C 86 % 1001,6 hPa 0,0 l/m 11,3 km/h (2 Bft) O-NO 65 2 min 0,000 mm 0,6 UV-I 344 W/m 3,3 C 1,7 C 16,1 km/h (3 Bft) 98,11 %
04.03.2017 09:00 5,5 C 85 % 1001,6 hPa 0,0 l/m 12,7 km/h (3 Bft) O-NO 73 2 min 0,127 mm 0,6 UV-I 350 W/m 3,2 C 0,9 C 16,1 km/h (3 Bft) 93,18 %
04.03.2017 09:02 5,6 C 85 % 1001,7 hPa 0,0 l/m 11,2 km/h (2 Bft) NO 54 2 min 0,000 mm 0,6 UV-I 355 W/m 3,3 C 1,9 C 14,5 km/h (3 Bft) 98,00 %
04.03.2017 09:04 5,6 C 84 % 1001,7 hPa 0,0 l/m 11,4 km/h (2 Bft) O-NO 57 2 min 0,000 mm 0,6 UV-I 360 W/m 3,1 C 1,8 C 16,1 km/h (3 Bft) 97,87 %
04.03.2017 09:06 5,7 C 85 % 1001,7 hPa 0,0 l/m 11,1 km/h (2 Bft) NO 42 2 min 0,000 mm 0,7 UV-I 365 W/m 3,4 C 2,1 C 16,1 km/h (3 Bft) 89,47 %
04.03.2017 09:08 5,8 C 84 % 1001,6 hPa 0,0 l/m 12,0 km/h (2 Bft) N-NO 32 2 min 0,000 mm 0,7 UV-I 369 W/m 3,3 C 1,7 C 17,7 km/h (3 Bft) 89,83 %
04.03.2017 09:10 5,8 C 83 % 1001,6 hPa 0,0 l/m 9,8 km/h (2 Bft) NO 52 2 min 0,000 mm 0,7 UV-I 375 W/m 3,1 C 3,1 C 14,5 km/h (3 Bft) 100,00 %
04.03.2017 09:12 5,9 C 83 % 1001,5 hPa 0,0 l/m 12,7 km/h (3 Bft) O 84 2 min 0,000 mm 0,7 UV-I 380 W/m 3,2 C 1,4 C 19,3 km/h (3 Bft) 95,74 %
04.03.2017 09:14 5,9 C 83 % 1001,5 hPa 0,0 l/m 12,1 km/h (2 Bft) NO 53 2 min 0,000 mm 0,7 UV-I 385 W/m 3,2 C 1,7 C 16,1 km/h (3 Bft) 94,34 %
04.03.2017 09:16 6,0 C 83 % 1001,5 hPa 0,0 l/m 11,4 km/h (2 Bft) O-NO 57 2 min 0,000 mm 0,7 UV-I 388 W/m 3,3 C 2,3 C 16,1 km/h (3 Bft) 97,96 %
04.03.2017 09:19 6,1 C 83 % 1001,4 hPa 0,0 l/m 10,7 km/h (2 Bft) NO 51 3 min 0,000 mm 0,8 UV-I 395 W/m 3,4 C 2,8 C 16,1 km/h (3 Bft) 95,77 %
04.03.2017 09:20 6,2 C 83 % 1001,4 hPa 0,0 l/m 10,3 km/h (2 Bft) O-NO 60 1 min 0,000 mm 0,8 UV-I 399 W/m 3,5 C 3,2 C 14,5 km/h (3 Bft) 100,00 %
04.03.2017 09:22 6,2 C 83 % 1001,4 hPa 0,0 l/m 9,8 km/h (2 Bft) NO 47 2 min 0,000 mm 0,8 UV-I 402 W/m 3,5 C 3,5 C 16,1 km/h (3 Bft) 98,00 %
04.03.2017 09:24 6,3 C 82 % 1001,3 hPa 0,0 l/m 10,1 km/h (2 Bft) NO 44 2 min 0,000 mm 0,8 UV-I 408 W/m 3,5 C 3,4 C 16,1 km/h (3 Bft) 98,00 %
04.03.2017 09:26 6,4 C 81 % 1001,2 hPa 0,0 l/m 11,3 km/h (2 Bft) NO 55 2 min 0,000 mm 0,8 UV-I 412 W/m 3,4 C 2,8 C 16,1 km/h (3 Bft) 92,00 %
04.03.2017 09:28 6,4 C 81 % 1001,1 hPa 0,0 l/m 12,9 km/h (3 Bft) NO 46 2 min 0,000 mm 0,9 UV-I 417 W/m 3,4 C 1,9 C 19,3 km/h (3 Bft) 100,00 %
04.03.2017 09:30 6,4 C 81 % 1001,1 hPa 0,0 l/m 11,0 km/h (2 Bft) NO 55 2 min 0,000 mm 0,9 UV-I 422 W/m 3,4 C 3,0 C 14,5 km/h (3 Bft) 96,23 %
04.03.2017 09:32 6,5 C 81 % 1001,1 hPa 0,0 l/m 13,7 km/h (3 Bft) NO 54 2 min 0,000 mm 0,9 UV-I 426 W/m 3,5 C 1,5 C 20,9 km/h (4 Bft) 97,87 %
04.03.2017 09:34 6,5 C 81 % 1001,2 hPa 0,0 l/m 13,4 km/h (3 Bft) O 83 2 min 0,000 mm 0,9 UV-I 431 W/m 3,5 C 1,7 C 17,7 km/h (3 Bft) 97,87 %
04.03.2017 09:36 6,6 C 81 % 1001,2 hPa 0,0 l/m 12,2 km/h (2 Bft) O-NO 57 2 min 0,000 mm 0,9 UV-I 434 W/m 3,6 C 2,5 C 16,1 km/h (3 Bft) 93,62 %
04.03.2017 09:39 6,8 C 82 % 1001,0 hPa 0,0 l/m 12,4 km/h (3 Bft) O 84 3 min 0,000 mm 1,0 UV-I 439 W/m 3,9 C 2,6 C 19,3 km/h (3 Bft) 98,57 %
04.03.2017 09:40 6,8 C 82 % 1001,0 hPa 0,0 l/m 13,6 km/h (3 Bft) O-NO 67 1 min 0,000 mm 1,0 UV-I 444 W/m 3,9 C 2,0 C 16,1 km/h (3 Bft) 100,00 %
04.03.2017 09:42 6,9 C 81 % 1001,0 hPa 0,0 l/m 12,3 km/h (3 Bft) O-NO 70 2 min 0,000 mm 1,0 UV-I 448 W/m 3,9 C 2,8 C 16,1 km/h (3 Bft) 96,43 %
04.03.2017 09:44 6,9 C 81 % 1001,0 hPa 0,0 l/m 12,3 km/h (3 Bft) NO 56 2 min 0,000 mm 1,0 UV-I 452 W/m 3,9 C 2,8 C 17,7 km/h (3 Bft) 100,00 %
04.03.2017 09:46 7,1 C 81 % 1000,9 hPa 0,0 l/m 13,1 km/h (3 Bft) O-NO 58 2 min 0,000 mm 1,0 UV-I 456 W/m 4,1 C 2,6 C 19,3 km/h (3 Bft) 93,62 %
04.03.2017 09:48 7,2 C 80 % 1000,9 hPa 0,0 l/m 10,9 km/h (2 Bft) O-NO 62 2 min 0,000 mm 1,1 UV-I 460 W/m 4,0 C 3,9 C 17,7 km/h (3 Bft) 98,11 %
04.03.2017 09:50 7,2 C 80 % 1000,9 hPa 0,0 l/m 10,7 km/h (2 Bft) O-NO 57 2 min 0,000 mm 1,1 UV-I 464 W/m 4,0 C 4,1 C 16,1 km/h (3 Bft) 90,24 %
04.03.2017 09:52 7,3 C 81 % 1000,7 hPa 0,0 l/m 11,6 km/h (2 Bft) O-NO 58 2 min 0,000 mm 1,1 UV-I 468 W/m 4,3 C 3,6 C 16,1 km/h (3 Bft) 96,00 %
04.03.2017 09:54 7,4 C 80 % 1000,7 hPa 0,0 l/m 11,1 km/h (2 Bft) O-NO 59 2 min 0,000 mm 1,1 UV-I 471 W/m 4,2 C 4,0 C 16,1 km/h (3 Bft) 97,73 %
04.03.2017 09:56 7,5 C 80 % 1000,6 hPa 0,0 l/m 13,3 km/h (3 Bft) O-NO 62 2 min 0,000 mm 1,1 UV-I 476 W/m 4,3 C 2,9 C 19,3 km/h (3 Bft) 98,00 %
04.03.2017 09:59 7,8 C 80 % 1000,6 hPa 0,0 l/m 11,2 km/h (2 Bft) NO 53 3 min 0,000 mm 1,1 UV-I 480 W/m 4,6 C 4,4 C 17,7 km/h (3 Bft) 94,37 %
04.03.2017 10:00 7,8 C 80 % 1000,6 hPa 0,0 l/m 12,7 km/h (3 Bft) O-NO 76 1 min 0,203 mm 1,2 UV-I 484 W/m 4,6 C 3,6 C 17,7 km/h (3 Bft) 95,65 %
04.03.2017 10:02 8,0 C 79 % 1000,5 hPa 0,0 l/m 13,6 km/h (3 Bft) O-NO 66 2 min 0,000 mm 1,2 UV-I 488 W/m 4,6 C 3,4 C 17,7 km/h (3 Bft) 97,87 %
04.03.2017 10:04 8,1 C 79 % 1000,5 hPa 0,0 l/m 14,6 km/h (3 Bft) O-NO 60 2 min 0,000 mm 1,2 UV-I 492 W/m 4,7 C 3,0 C 19,3 km/h (3 Bft) 100,00 %
04.03.2017 10:06 8,1 C 79 % 1000,5 hPa 0,0 l/m 16,3 km/h (3 Bft) NO 53 2 min 0,000 mm 1,2 UV-I 495 W/m 4,7 C 2,3 C 22,5 km/h (4 Bft) 97,87 %
04.03.2017 10:08 8,2 C 78 % 1000,5 hPa 0,0 l/m 16,7 km/h (3 Bft) O-NO 69 2 min 0,000 mm 1,2 UV-I 498 W/m 4,6 C 2,2 C 22,5 km/h (4 Bft) 95,83 %
04.03.2017 10:10 8,3 C 79 % 1000,4 hPa 0,0 l/m 16,1 km/h (3 Bft) NO 55 2 min 0,000 mm 1,3 UV-I 502 W/m 4,9 C 2,6 C 24,1 km/h (4 Bft) 97,87 %
04.03.2017 10:12 8,6 C 79 % 1000,4 hPa 0,0 l/m 15,1 km/h (3 Bft) O 88 2 min 0,000 mm 1,3 UV-I 506 W/m 5,2 C 3,4 C 20,9 km/h (4 Bft) 93,62 %
04.03.2017 10:14 8,7 C 77 % 1000,3 hPa 0,0 l/m 14,8 km/h (3 Bft) O-NO 57 2 min 0,000 mm 1,3 UV-I 510 W/m 4,9 C 3,6 C 24,1 km/h (4 Bft) 95,74 %
04.03.2017 10:16 8,7 C 78 % 1000,3 hPa 0,0 l/m 15,8 km/h (3 Bft) O-NO 69 2 min 0,000 mm 1,3 UV-I 513 W/m 5,1 C 3,2 C 22,5 km/h (4 Bft) 93,62 %
04.03.2017 10:19 8,8 C 78 % 1000,3 hPa 0,0 l/m 12,7 km/h (3 Bft) O-NO 57 3 min 0,000 mm 1,3 UV-I 519 W/m 5,2 C 4,8 C 19,3 km/h (3 Bft) 95,71 %
04.03.2017 10:20 8,8 C 78 % 1000,3 hPa 0,0 l/m 14,6 km/h (3 Bft) O-NO 61 1 min 0,000 mm 1,3 UV-I 520 W/m 5,2 C 3,9 C 17,7 km/h (3 Bft) 100,00 %
04.03.2017 10:22 8,9 C 78 % 1000,3 hPa 0,0 l/m 15,4 km/h (3 Bft) O 88 2 min 0,000 mm 1,3 UV-I 523 W/m 5,3 C 3,6 C 19,3 km/h (3 Bft) 97,37 %
04.03.2017 10:24 8,9 C 78 % 1000,3 hPa 0,0 l/m 11,6 km/h (2 Bft) O-NO 65 2 min 0,000 mm 1,4 UV-I 525 W/m 5,3 C 5,5 C 17,7 km/h (3 Bft) 97,87 %
04.03.2017 10:26 9,1 C 77 % 1000,3 hPa 0,0 l/m 15,4 km/h (3 Bft) O-NO 69 2 min 0,000 mm 1,4 UV-I 529 W/m 5,3 C 3,9 C 20,9 km/h (4 Bft) 97,87 %
04.03.2017 10:28 9,2 C 77 % 1000,2 hPa 0,0 l/m 15,5 km/h (3 Bft) NO 49 2 min 0,000 mm 1,4 UV-I 531 W/m 5,4 C 4,0 C 19,3 km/h (3 Bft) 100,00 %
04.03.2017 10:30 9,2 C 78 % 1000,2 hPa 0,0 l/m 13,4 km/h (3 Bft) O-NO 61 2 min 0,000 mm 1,4 UV-I 534 W/m 5,6 C 4,9 C 20,9 km/h (4 Bft) 97,87 %
04.03.2017 10:32 9,2 C 77 % 1000,1 hPa 0,0 l/m 14,5 km/h (3 Bft) O-NO 61 2 min 0,000 mm 1,4 UV-I 539 W/m 5,4 C 4,4 C 19,3 km/h (3 Bft) 93,62 %
04.03.2017 10:34 9,2 C 77 % 1000,0 hPa 0,0 l/m 13,2 km/h (3 Bft) N-NO 29 2 min 0,000 mm 1,4 UV-I 541 W/m 5,4 C 5,0 C 19,3 km/h (3 Bft) 93,62 %
04.03.2017 10:36 9,3 C 77 % 1000,0 hPa 0,0 l/m 13,5 km/h (3 Bft) O-NO 57 2 min 0,000 mm 1,5 UV-I 544 W/m 5,5 C 5,0 C 20,9 km/h (4 Bft) 91,49 %
04.03.2017 10:38 9,4 C 77 % 1000,0 hPa 0,0 l/m 13,1 km/h (3 Bft) O-NO 57 2 min 0,000 mm 1,5 UV-I 547 W/m 5,6 C 5,3 C 16,1 km/h (3 Bft) 93,62 %
04.03.2017 10:40 9,4 C 76 % 1000,0 hPa 0,0 l/m 10,5 km/h (2 Bft) NO 55 2 min 0,000 mm 1,5 UV-I 549 W/m 5,4 C 6,6 C 16,1 km/h (3 Bft) 95,74 %
04.03.2017 10:42 9,6 C 77 % 999,9 hPa 0,0 l/m 11,2 km/h (2 Bft) NO 46 2 min 0,000 mm 1,5 UV-I 553 W/m 5,8 C 6,5 C 17,7 km/h (3 Bft) 97,87 %
04.03.2017 10:44 9,7 C 77 % 999,9 hPa 0,0 l/m 10,1 km/h (2 Bft) O-NO 74 2 min 0,000 mm 1,5 UV-I 555 W/m 5,9 C 7,2 C 17,7 km/h (3 Bft) 97,92 %
04.03.2017 10:46 9,8 C 76 % 999,9 hPa 0,0 l/m 13,1 km/h (3 Bft) O-NO 76 2 min 0,000 mm 1,5 UV-I 558 W/m 5,8 C 5,7 C 19,3 km/h (3 Bft) 97,87 %
04.03.2017 10:49 9,8 C 75 % 999,8 hPa 0,0 l/m 15,6 km/h (3 Bft) O-NO 61 3 min 0,000 mm 1,6 UV-I 561 W/m 5,6 C 4,6 C 20,9 km/h (4 Bft) 97,26 %
04.03.2017 10:50 9,8 C 75 % 999,8 hPa 0,0 l/m 17,9 km/h (3 Bft) O-NO 61 1 min 0,000 mm 1,6 UV-I 564 W/m 5,6 C 3,8 C 22,5 km/h (4 Bft) 100,00 %
04.03.2017 10:52 9,8 C 75 % 999,8 hPa 0,0 l/m 13,2 km/h (3 Bft) O 83 2 min 0,000 mm 1,6 UV-I 567 W/m 5,6 C 5,7 C 17,7 km/h (3 Bft) 96,00 %
04.03.2017 10:54 9,9 C 76 % 999,8 hPa 0,0 l/m 11,1 km/h (2 Bft) N-NO 20 2 min 0,000 mm 1,6 UV-I 570 W/m 5,9 C 6,9 C 17,7 km/h (3 Bft) 95,12 %
04.03.2017 10:56 10,1 C 76 % 999,7 hPa 0,0 l/m 10,5 km/h (2 Bft) O-NO 63 2 min 0,000 mm 1,6 UV-I 572 W/m 6,1 C 7,4 C 16,1 km/h (3 Bft) 98,25 %
04.03.2017 10:59 10,3 C 77 % 999,6 hPa 0,0 l/m 9,0 km/h (2 Bft) N-NO 22 3 min 0,000 mm 1,6 UV-I 576 W/m 6,4 C 8,5 C 16,1 km/h (3 Bft) 100,00 %
04.03.2017 11:00 10,4 C 77 % 999,6 hPa 0,0 l/m 7,3 km/h (2 Bft) O-NO 70 1 min 0,279 mm 1,6 UV-I 577 W/m 6,5 C 9,8 C 11,3 km/h (2 Bft) 100,00 %
04.03.2017 11:02 10,6 C 76 % 999,6 hPa 0,0 l/m 13,1 km/h (3 Bft) NO 36 2 min 0,000 mm 1,6 UV-I 579 W/m 6,5 C 6,7 C 19,3 km/h (3 Bft) 100,00 %
04.03.2017 11:04 10,7 C 75 % 999,6 hPa 0,0 l/m 9,9 km/h (2 Bft) N-NO 27 2 min 0,000 mm 1,7 UV-I 583 W/m 6,5 C 8,4 C 14,5 km/h (3 Bft) 100,00 %
04.03.2017 11:06 10,7 C 75 % 999,6 hPa 0,0 l/m 13,3 km/h (3 Bft) NO 37 2 min 0,000 mm 1,7 UV-I 586 W/m 6,5 C 6,7 C 17,7 km/h (3 Bft) 100,00 %
04.03.2017 11:08 10,7 C 74 % 999,5 hPa 0,0 l/m 13,9 km/h (3 Bft) O-NO 75 2 min 0,000 mm 1,7 UV-I 588 W/m 6,3 C 6,4 C 17,7 km/h (3 Bft) 100,00 %
04.03.2017 11:10 10,7 C 73 % 999,4 hPa 0,0 l/m 14,1 km/h (3 Bft) O 84 2 min 0,000 mm 1,7 UV-I 592 W/m 6,1 C 6,4 C 19,3 km/h (3 Bft) 100,00 %
04.03.2017 11:12 10,7 C 74 % 999,5 hPa 0,0 l/m 15,5 km/h (3 Bft) O-NO 65 2 min 0,000 mm 1,7 UV-I 595 W/m 6,3 C 5,8 C 22,5 km/h (4 Bft) 100,00 %
04.03.2017 11:14 10,7 C 74 % 999,5 hPa 0,0 l/m 15,2 km/h (3 Bft) O-NO 73 2 min 0,000 mm 1,7 UV-I 598 W/m 6,3 C 5,9 C 19,3 km/h (3 Bft) 100,00 %
04.03.2017 11:16 10,8 C 75 % 999,4 hPa 0,0 l/m 14,1 km/h (3 Bft) O-NO 58 2 min 0,000 mm 1,7 UV-I 604 W/m 6,5 C 6,5 C 17,7 km/h (3 Bft) 100,00 %
04.03.2017 11:18 10,9 C 73 % 999,4 hPa 0,0 l/m 15,7 km/h (3 Bft) O-NO 70 2 min 0,000 mm 1,7 UV-I 607 W/m 6,3 C 5,9 C 20,9 km/h (4 Bft) 97,73 %
04.03.2017 11:20 11,0 C 74 % 999,4 hPa 0,0 l/m 15,8 km/h (3 Bft) O-NO 63 2 min 0,000 mm 1,7 UV-I 608 W/m 6,5 C 6,0 C 22,5 km/h (4 Bft) 100,00 %
04.03.2017 11:22 11,1 C 73 % 999,4 hPa 0,0 l/m 13,6 km/h (3 Bft) O 83 2 min 0,000 mm 1,8 UV-I 614 W/m 6,4 C 7,1 C 19,3 km/h (3 Bft) 100,00 %
04.03.2017 11:24 11,2 C 73 % 999,4 hPa 0,0 l/m 14,4 km/h (3 Bft) O-NO 57 2 min 0,000 mm 1,8 UV-I 620 W/m 6,5 C 6,8 C 19,3 km/h (3 Bft) 97,56 %
04.03.2017 11:26 11,3 C 73 % 999,3 hPa 0,0 l/m 14,5 km/h (3 Bft) NO 40 2 min 0,000 mm 1,8 UV-I 618 W/m 6,6 C 6,9 C 19,3 km/h (3 Bft) 100,00 %
04.03.2017 11:28 11,5 C 73 % 999,2 hPa 0,0 l/m 15,3 km/h (3 Bft) NO 53 2 min 0,000 mm 1,7 UV-I 521 W/m 6,8 C 6,8 C 19,3 km/h (3 Bft) 100,00 %
04.03.2017 11:30 11,6 C 71 % 999,1 hPa 0,0 l/m 15,4 km/h (3 Bft) O-NO 57 2 min 0,000 mm 1,6 UV-I 527 W/m 6,5 C 6,9 C 22,5 km/h (4 Bft) 100,00 %
04.03.2017 11:32 11,5 C 71 % 999,2 hPa 0,0 l/m 17,1 km/h (3 Bft) O-NO 73 2 min 0,000 mm 1,5 UV-I 467 W/m 6,4 C 6,2 C 22,5 km/h (4 Bft) 97,56 %
04.03.2017 11:34 11,4 C 71 % 999,1 hPa 0,0 l/m 14,1 km/h (3 Bft) NO 42 2 min 0,000 mm 1,5 UV-I 410 W/m 6,3 C 7,2 C 19,3 km/h (3 Bft) 100,00 %
04.03.2017 11:36 11,4 C 72 % 999,0 hPa 0,0 l/m 13,6 km/h (3 Bft) NO 49 2 min 0,000 mm 1,5 UV-I 425 W/m 6,5 C 7,4 C 17,7 km/h (3 Bft) 98,00 %
04.03.2017 11:39 11,6 C 72 % 999,0 hPa 0,0 l/m 15,4 km/h (3 Bft) O 82 3 min 0,000 mm 1,5 UV-I 421 W/m 6,7 C 6,9 C 22,5 km/h (4 Bft) 98,51 %
04.03.2017 11:40 11,6 C 71 % 999,0 hPa 0,0 l/m 16,7 km/h (3 Bft) O-NO 63 1 min 0,000 mm 1,5 UV-I 438 W/m 6,5 C 6,4 C 20,9 km/h (4 Bft) 96,30 %
04.03.2017 11:42 11,6 C 71 % 999,0 hPa 0,0 l/m 11,0 km/h (2 Bft) O-NO 63 2 min 0,000 mm 1,5 UV-I 453 W/m 6,5 C 8,8 C 16,1 km/h (3 Bft) 97,37 %
04.03.2017 11:44 11,7 C 72 % 998,9 hPa 0,0 l/m 13,7 km/h (3 Bft) O-NO 68 2 min 0,000 mm 1,5 UV-I 419 W/m 6,8 C 7,7 C 19,3 km/h (3 Bft) 97,87 %
04.03.2017 11:46 11,7 C 71 % 998,8 hPa 0,0 l/m 16,7 km/h (3 Bft) O-NO 67 2 min 0,000 mm 1,6 UV-I 438 W/m 6,6 C 6,6 C 19,3 km/h (3 Bft) 98,11 %
04.03.2017 11:48 11,7 C 71 % 998,8 hPa 0,0 l/m 17,1 km/h (3 Bft) NO 52 2 min 0,000 mm 1,6 UV-I 474 W/m 6,6 C 6,4 C 22,5 km/h (4 Bft) 98,00 %
04.03.2017 11:50 11,7 C 71 % 998,7 hPa 0,0 l/m 12,7 km/h (3 Bft) O-NO 71 2 min 0,000 mm 1,5 UV-I 420 W/m 6,6 C 8,2 C 19,3 km/h (3 Bft) 97,87 %
04.03.2017 11:52 11,8 C 71 % 998,6 hPa 0,0 l/m 14,7 km/h (3 Bft) O 81 2 min 0,000 mm 1,5 UV-I 419 W/m 6,7 C 7,4 C 19,3 km/h (3 Bft) 97,56 %
04.03.2017 11:54 11,9 C 72 % 998,6 hPa 0,0 l/m 14,8 km/h (3 Bft) O-NO 66 2 min 0,000 mm 1,5 UV-I 427 W/m 7,0 C 7,5 C 20,9 km/h (4 Bft) 95,12 %
04.03.2017 11:56 12,0 C 72 % 998,5 hPa 0,0 l/m 14,6 km/h (3 Bft) O-NO 71 2 min 0,000 mm 1,6 UV-I 497 W/m 7,1 C 7,7 C 19,3 km/h (3 Bft) 98,11 %
04.03.2017 11:58 12,1 C 72 % 998,5 hPa 0,0 l/m 14,1 km/h (3 Bft) O-NO 69 2 min 0,000 mm 1,6 UV-I 496 W/m 7,2 C 8,0 C 17,7 km/h (3 Bft) 93,62 %
04.03.2017 12:00 12,2 C 70 % 998,6 hPa 0,0 l/m 16,4 km/h (3 Bft) NO 55 2 min 0,280 mm 1,7 UV-I 562 W/m 6,9 C 7,3 C 20,9 km/h (4 Bft) 97,87 %
04.03.2017 12:02 12,4 C 71 % 998,5 hPa 0,0 l/m 15,1 km/h (3 Bft) NO 54 2 min 0,000 mm 1,7 UV-I 560 W/m 7,3 C 8,0 C 22,5 km/h (4 Bft) 95,74 %
04.03.2017 12:04 12,6 C 71 % 998,4 hPa 0,0 l/m 15,3 km/h (3 Bft) O-NO 61 2 min 0,000 mm 1,7 UV-I 487 W/m 7,5 C 8,2 C 17,7 km/h (3 Bft) 92,00 %
04.03.2017 12:06 12,7 C 69 % 998,4 hPa 0,0 l/m 12,8 km/h (3 Bft) NO 51 2 min 0,000 mm 1,6 UV-I 511 W/m 7,2 C 9,3 C 17,7 km/h (3 Bft) 94,44 %
04.03.2017 12:08 12,7 C 69 % 998,3 hPa 0,0 l/m 12,5 km/h (3 Bft) NO 52 2 min 0,000 mm 1,5 UV-I 450 W/m 7,2 C 9,4 C 20,9 km/h (4 Bft) 96,23 %
04.03.2017 12:10 12,8 C 68 % 998,3 hPa 0,0 l/m 12,7 km/h (3 Bft) O-NO 57 2 min 0,000 mm 1,5 UV-I 433 W/m 7,0 C 9,4 C 19,3 km/h (3 Bft) 94,34 %
04.03.2017 12:12 12,9 C 68 % 998,2 hPa 0,0 l/m 11,8 km/h (2 Bft) NO 55 2 min 0,000 mm 1,6 UV-I 493 W/m 7,1 C 9,9 C 17,7 km/h (3 Bft) 95,12 %
04.03.2017 12:14 13,0 C 68 % 998,1 hPa 0,0 l/m 12,7 km/h (3 Bft) NO 53 2 min 0,000 mm 1,7 UV-I 586 W/m 7,2 C 9,7 C 17,7 km/h (3 Bft) 95,74 %
04.03.2017 12:16 13,1 C 67 % 998,1 hPa 0,0 l/m 13,5 km/h (3 Bft) NO 39 2 min 0,000 mm 1,6 UV-I 552 W/m 7,1 C 9,5 C 17,7 km/h (3 Bft) 94,34 %
04.03.2017 12:18 13,1 C 69 % 998,1 hPa 0,0 l/m 12,6 km/h (3 Bft) NO 54 2 min 0,000 mm 1,6 UV-I 437 W/m 7,5 C 9,8 C 16,1 km/h (3 Bft) 93,18 %
04.03.2017 12:20 13,2 C 68 % 998,1 hPa 0,0 l/m 13,8 km/h (3 Bft) N-NO 33 2 min 0,000 mm 1,6 UV-I 417 W/m 7,4 C 9,5 C 19,3 km/h (3 Bft) 97,56 %
04.03.2017 12:22 13,2 C 70 % 998,0 hPa 0,0 l/m 12,9 km/h (3 Bft) NO 52 2 min 0,000 mm 1,6 UV-I 412 W/m 7,9 C 9,8 C 17,7 km/h (3 Bft) 90,57 %
04.03.2017 12:24 13,3 C 68 % 997,9 hPa 0,0 l/m 14,4 km/h (3 Bft) NO 44 2 min 0,000 mm 1,6 UV-I 404 W/m 7,5 C 9,4 C 19,3 km/h (3 Bft) 95,45 %
04.03.2017 12:26 13,3 C 69 % 998,0 hPa 0,0 l/m 12,8 km/h (3 Bft) NO 40 2 min 0,000 mm 1,6 UV-I 400 W/m 7,7 C 10,0 C 19,3 km/h (3 Bft) 95,12 %
04.03.2017 12:28 13,4 C 70 % 997,9 hPa 0,0 l/m 10,5 km/h (2 Bft) NO 43 2 min 0,000 mm 1,6 UV-I 432 W/m 8,0 C 11,1 C 16,1 km/h (3 Bft) 96,61 %
04.03.2017 12:30 13,6 C 68 % 997,9 hPa 0,0 l/m 11,2 km/h (2 Bft) N 5 2 min 0,000 mm 1,8 UV-I 519 W/m 7,8 C 11,0 C 16,1 km/h (3 Bft) 95,12 %
04.03.2017 12:32 13,8 C 68 % 997,8 hPa 0,0 l/m 12,6 km/h (3 Bft) NO 36 2 min 0,000 mm 1,7 UV-I 503 W/m 8,0 C 10,6 C 19,3 km/h (3 Bft) 97,56 %
04.03.2017 12:34 13,8 C 67 % 997,8 hPa 0,0 l/m 14,2 km/h (3 Bft) NO 40 2 min 0,000 mm 1,8 UV-I 605 W/m 7,8 C 10,0 C 19,3 km/h (3 Bft) 98,21 %
04.03.2017 12:36 13,9 C 66 % 997,7 hPa 0,0 l/m 13,4 km/h (3 Bft) N-NO 30 2 min 0,000 mm 1,9 UV-I 635 W/m 7,7 C 10,4 C 19,3 km/h (3 Bft) 100,00 %
04.03.2017 12:38 14,1 C 66 % 997,7 hPa 0,0 l/m 12,9 km/h (3 Bft) O-NO 60 2 min 0,000 mm 2,0 UV-I 656 W/m 7,8 C 10,9 C 19,3 km/h (3 Bft) 100,00 %
04.03.2017 12:40 14,2 C 65 % 997,7 hPa 0,0 l/m 12,6 km/h (3 Bft) O-NO 62 2 min 0,000 mm 2,0 UV-I 649 W/m 7,7 C 11,1 C 19,3 km/h (3 Bft) 100,00 %
04.03.2017 12:42 14,3 C 64 % 997,6 hPa 0,0 l/m 12,0 km/h (2 Bft) NO 51 2 min 0,000 mm 2,0 UV-I 640 W/m 7,6 C 11,5 C 17,7 km/h (3 Bft) 100,00 %
04.03.2017 12:44 14,4 C 64 % 997,6 hPa 0,0 l/m 15,4 km/h (3 Bft) O-NO 60 2 min 0,000 mm 1,9 UV-I 611 W/m 7,7 C 10,3 C 20,9 km/h (4 Bft) 100,00 %
04.03.2017 12:46 14,4 C 62 % 997,5 hPa 0,0 l/m 13,9 km/h (3 Bft) NO 49 2 min 0,000 mm 1,9 UV-I 600 W/m 7,2 C 10,9 C 17,7 km/h (3 Bft) 100,00 %
04.03.2017 12:48 14,6 C 62 % 997,5 hPa 0,0 l/m 14,2 km/h (3 Bft) O-NO 63 2 min 0,000 mm 1,9 UV-I 603 W/m 7,4 C 11,0 C 17,7 km/h (3 Bft) 100,00 %
04.03.2017 12:50 14,8 C 64 % 997,4 hPa 0,0 l/m 12,4 km/h (3 Bft) O-NO 70 2 min 0,000 mm 1,9 UV-I 623 W/m 8,1 C 11,9 C 19,3 km/h (3 Bft) 97,56 %
04.03.2017 12:52 14,9 C 63 % 997,4 hPa 0,0 l/m 14,3 km/h (3 Bft) NO 39 2 min 0,000 mm 1,9 UV-I 608 W/m 7,9 C 11,3 C 20,9 km/h (4 Bft) 95,12 %
04.03.2017 12:54 15,0 C 64 % 997,4 hPa 0,0 l/m 12,0 km/h (2 Bft) O-NO 65 2 min 0,000 mm 1,8 UV-I 589 W/m 8,2 C 12,3 C 16,1 km/h (3 Bft) 100,00 %
04.03.2017 12:56 15,1 C 61 % 997,3 hPa 0,0 l/m 16,4 km/h (3 Bft) O-NO 63 2 min 0,000 mm 1,9 UV-I 610 W/m 7,6 C 10,9 C 19,3 km/h (3 Bft) 100,00 %
04.03.2017 12:59 15,1 C 60 % 997,3 hPa 0,0 l/m 11,9 km/h (2 Bft) O-NO 63 3 min 0,000 mm 1,9 UV-I 615 W/m 7,4 C 12,4 C 17,7 km/h (3 Bft) 100,00 %
04.03.2017 13:00 15,1 C 60 % 997,3 hPa 0,0 l/m 8,3 km/h (2 Bft) NO 55 1 min 0,000 mm 1,8 UV-I 600 W/m 7,4 C 14,0 C 9,7 km/h (2 Bft) 100,00 %
04.03.2017 13:02 15,2 C 60 % 997,3 hPa 0,0 l/m 11,9 km/h (2 Bft) O-NO 62 2 min 0,330 mm 1,8 UV-I 598 W/m 7,5 C 12,5 C 17,7 km/h (3 Bft) 96,00 %
04.03.2017 13:04 15,3 C 60 % 997,4 hPa 0,0 l/m 11,9 km/h (2 Bft) O-NO 63 2 min 0,000 mm 1,8 UV-I 587 W/m 7,6 C 12,7 C 17,7 km/h (3 Bft) 100,00 %
04.03.2017 13:06 15,4 C 60 % 997,3 hPa 0,0 l/m 10,4 km/h (2 Bft) O-NO 71 2 min 0,000 mm 1,8 UV-I 594 W/m 7,7 C 13,4 C 16,1 km/h (3 Bft) 100,00 %
04.03.2017 13:08 15,6 C 59 % 997,2 hPa 0,0 l/m 10,4 km/h (2 Bft) NO 39 2 min 0,000 mm 1,8 UV-I 602 W/m 7,6 C 13,6 C 14,5 km/h (3 Bft) 100,00 %
04.03.2017 13:10 15,6 C 59 % 997,2 hPa 0,0 l/m 11,0 km/h (2 Bft) O-NO 59 2 min 0,000 mm 1,8 UV-I 603 W/m 7,6 C 13,4 C 16,1 km/h (3 Bft) 100,00 %
04.03.2017 13:12 15,7 C 58 % 997,1 hPa 0,0 l/m 13,4 km/h (3 Bft) NO 40 2 min 0,000 mm 1,8 UV-I 603 W/m 7,5 C 12,6 C 17,7 km/h (3 Bft) 97,87 %
04.03.2017 13:14 15,8 C 58 % 997,1 hPa 0,0 l/m 11,8 km/h (2 Bft) NO 47 2 min 0,000 mm 1,8 UV-I 585 W/m 7,6 C 13,3 C 16,1 km/h (3 Bft) 100,00 %
04.03.2017 13:16 16,0 C 57 % 997,0 hPa 0,0 l/m 10,9 km/h (2 Bft) O-NO 57 2 min 0,000 mm 1,7 UV-I 582 W/m 7,5 C 13,8 C 16,1 km/h (3 Bft) 100,00 %
04.03.2017 13:18 16,1 C 58 % 997,1 hPa 0,0 l/m 12,9 km/h (3 Bft) O-NO 67 2 min 0,000 mm 1,7 UV-I 582 W/m 7,8 C 13,2 C 17,7 km/h (3 Bft) 100,00 %
04.03.2017 13:20 16,2 C 58 % 997,2 hPa 0,0 l/m 11,4 km/h (2 Bft) NO 55 2 min 0,000 mm 1,7 UV-I 573 W/m 7,9 C 13,9 C 17,7 km/h (3 Bft) 100,00 %
04.03.2017 13:22 16,2 C 59 % 997,1 hPa 0,0 l/m 11,1 km/h (2 Bft) NO 46 2 min 0,000 mm 1,7 UV-I 577 W/m 8,2 C 14,0 C 16,1 km/h (3 Bft) 100,00 %
04.03.2017 13:24 16,3 C 59 % 997,1 hPa 0,0 l/m 9,7 km/h (2 Bft) NO 55 2 min 0,000 mm 1,6 UV-I 524 W/m 8,3 C 14,7 C 16,1 km/h (3 Bft) 100,00 %
04.03.2017 13:26 16,3 C 58 % 997,0 hPa 0,0 l/m 11,7 km/h (2 Bft) NO 43 2 min 0,000 mm 1,7 UV-I 569 W/m 8,0 C 13,9 C 16,1 km/h (3 Bft) 98,00 %
04.03.2017 13:29 16,4 C 59 % 996,9 hPa 0,0 l/m 9,6 km/h (2 Bft) O-NO 59 3 min 0,000 mm 1,6 UV-I 554 W/m 8,4 C 14,8 C 16,1 km/h (3 Bft) 100,00 %
04.03.2017 13:30 16,4 C 58 % 996,9 hPa 0,0 l/m 11,9 km/h (2 Bft) O-NO 59 1 min 0,000 mm 1,6 UV-I 542 W/m 8,1 C 13,9 C 16,1 km/h (3 Bft) 100,00 %
04.03.2017 13:32 16,5 C 58 % 996,9 hPa 0,0 l/m 11,4 km/h (2 Bft) NO 46 2 min 0,000 mm 1,7 UV-I 576 W/m 8,2 C 14,2 C 16,1 km/h (3 Bft) 100,00 %
04.03.2017 13:34 16,6 C 56 % 996,8 hPa 0,0 l/m 11,4 km/h (2 Bft) NO 55 2 min 0,000 mm 1,7 UV-I 590 W/m 7,8 C 14,3 C 17,7 km/h (3 Bft) 100,00 %
04.03.2017 13:36 16,6 C 54 % 996,6 hPa 0,0 l/m 12,4 km/h (3 Bft) NO 42 2 min 0,000 mm 1,6 UV-I 550 W/m 7,3 C 14,0 C 16,1 km/h (3 Bft) 100,00 %
04.03.2017 13:38 16,6 C 56 % 996,6 hPa 0,0 l/m 10,4 km/h (2 Bft) NO 51 2 min 0,000 mm 1,6 UV-I 568 W/m 7,8 C 14,7 C 14,5 km/h (3 Bft) 98,00 %
04.03.2017 13:40 16,8 C 61 % 996,6 hPa 0,0 l/m 10,7 km/h (2 Bft) NO 35 2 min 0,000 mm 1,6 UV-I 531 W/m 9,2 C 14,8 C 17,7 km/h (3 Bft) 100,00 %
04.03.2017 13:42 16,9 C 57 % 996,7 hPa 0,0 l/m 11,9 km/h (2 Bft) O-NO 59 2 min 0,000 mm 1,5 UV-I 523 W/m 8,3 C 14,5 C 16,1 km/h (3 Bft) 100,00 %
04.03.2017 13:44 16,8 C 55 % 996,6 hPa 0,0 l/m 9,7 km/h (2 Bft) O-NO 59 2 min 0,000 mm 1,5 UV-I 505 W/m 7,7 C 15,2 C 14,5 km/h (3 Bft) 100,00 %
04.03.2017 13:46 16,9 C 55 % 996,7 hPa 0,0 l/m 9,8 km/h (2 Bft) NO 51 2 min 0,000 mm 1,4 UV-I 466 W/m 7,8 C 15,3 C 14,5 km/h (3 Bft) 98,11 %
04.03.2017 13:48 16,8 C 53 % 996,6 hPa 0,0 l/m 11,7 km/h (2 Bft) NO 53 2 min 0,000 mm 1,5 UV-I 448 W/m 7,2 C 14,5 C 16,1 km/h (3 Bft) 96,00 %
04.03.2017 13:50 16,8 C 54 % 996,6 hPa 0,0 l/m 13,4 km/h (3 Bft) NO 56 2 min 0,000 mm 1,6 UV-I 564 W/m 7,4 C 13,9 C 20,9 km/h (4 Bft) 97,73 %
04.03.2017 13:52 16,7 C 55 % 996,6 hPa 0,0 l/m 12,8 km/h (3 Bft) O-NO 66 2 min 0,000 mm 1,6 UV-I 580 W/m 7,6 C 14,0 C 19,3 km/h (3 Bft) 97,73 %
04.03.2017 13:54 16,8 C 55 % 996,6 hPa 0,0 l/m 10,8 km/h (2 Bft) NO 49 2 min 0,000 mm 1,5 UV-I 566 W/m 7,7 C 14,8 C 16,1 km/h (3 Bft) 97,87 %
04.03.2017 13:56 16,9 C 55 % 996,6 hPa 0,0 l/m 11,0 km/h (2 Bft) O-NO 57 2 min 0,000 mm 1,5 UV-I 554 W/m 7,8 C 14,8 C 16,1 km/h (3 Bft) 96,43 %
04.03.2017 13:58 17,1 C 55 % 996,5 hPa 0,0 l/m 12,1 km/h (2 Bft) NO 49 2 min 0,000 mm 1,5 UV-I 551 W/m 8,0 C 14,7 C 17,7 km/h (3 Bft) 97,73 %
04.03.2017 14:00 17,2 C 54 % 996,4 hPa 0,0 l/m 11,6 km/h (2 Bft) N-NO 20 2 min 0,000 mm 1,5 UV-I 543 W/m 7,8 C 14,9 C 16,1 km/h (3 Bft) 97,62 %
04.03.2017 14:02 17,3 C 54 % 996,4 hPa 0,0 l/m 12,0 km/h (2 Bft) O-NO 57 2 min 0,356 mm 1,5 UV-I 560 W/m 7,9 C 14,9 C 17,7 km/h (3 Bft) 95,45 %
04.03.2017 14:04 17,3 C 52 % 996,4 hPa 0,0 l/m 9,7 km/h (2 Bft) O-NO 66 2 min 0,000 mm 1,5 UV-I 550 W/m 7,3 C 15,8 C 12,9 km/h (3 Bft) 96,61 %
04.03.2017 14:06 17,5 C 55 % 996,4 hPa 0,0 l/m 13,0 km/h (3 Bft) O-NO 67 2 min 0,000 mm 1,4 UV-I 535 W/m 8,4 C 14,8 C 16,1 km/h (3 Bft) 96,15 %
04.03.2017 14:08 17,6 C 53 % 996,3 hPa 0,0 l/m 13,2 km/h (3 Bft) O-NO 71 2 min 0,000 mm 1,3 UV-I 497 W/m 7,9 C 14,9 C 19,3 km/h (3 Bft) 97,18 %
04.03.2017 14:10 17,4 C 50 % 996,3 hPa 0,0 l/m 15,0 km/h (3 Bft) NO 44 2 min 0,000 mm 1,1 UV-I 314 W/m 6,9 C 14,1 C 20,9 km/h (4 Bft) 94,29 %
04.03.2017 14:12 17,3 C 51 % 996,2 hPa 0,0 l/m 14,2 km/h (3 Bft) NO 44 2 min 0,000 mm 1,1 UV-I 310 W/m 7,1 C 14,2 C 19,3 km/h (3 Bft) 97,37 %
04.03.2017 14:14 17,3 C 53 % 996,2 hPa 0,0 l/m 14,1 km/h (3 Bft) O-NO 69 2 min 0,000 mm 1,1 UV-I 304 W/m 7,6 C 14,2 C 19,3 km/h (3 Bft) 96,61 %
04.03.2017 14:16 17,3 C 52 % 996,1 hPa 0,0 l/m 10,8 km/h (2 Bft) NO 51 2 min 0,000 mm 1,1 UV-I 315 W/m 7,3 C 15,4 C 17,7 km/h (3 Bft) 97,14 %
04.03.2017 14:18 17,3 C 52 % 996,1 hPa 0,0 l/m 10,3 km/h (2 Bft) O-NO 58 2 min 0,000 mm 1,0 UV-I 282 W/m 7,3 C 15,5 C 14,5 km/h (3 Bft) 98,21 %
04.03.2017 14:20 17,3 C 50 % 996,0 hPa 0,0 l/m 10,1 km/h (2 Bft) NO 50 0 min 0,000 mm 0,9 UV-I 222 W/m 6,8 C 15,6 C 16,1 km/h (3 Bft) 100,00 %
04.03.2017 14:22 17,3 C 51 % 996,0 hPa 0,0 l/m 6,1 km/h (2 Bft) NO 51 0 min 0,000 mm 0,8 UV-I 134 W/m 7,1 C 17,3 C 8,0 km/h (2 Bft) 100,00 %
04.03.2017 14:24 17,2 C 53 % 995,9 hPa 0,0 l/m 5,8 km/h (2 Bft) O-NO 63 0 min 0,000 mm 0,7 UV-I 117 W/m 7,5 C 17,2 C 9,7 km/h (2 Bft) 100,00 %
04.03.2017 14:26 17,2 C 51 % 995,9 hPa 0,0 l/m 7,7 km/h (2 Bft) O-NO 62 0 min 0,000 mm 0,7 UV-I 104 W/m 7,0 C 16,6 C 11,3 km/h (2 Bft) 100,00 %
04.03.2017 14:28 17,2 C 53 % 995,9 hPa 0,0 l/m 6,7 km/h (2 Bft) O-NO 65 0 min 0,000 mm 0,6 UV-I 98 W/m 7,5 C 17,1 C 11,3 km/h (2 Bft) 100,00 %
04.03.2017 14:30 17,1 C 54 % 995,7 hPa 0,0 l/m 7,2 km/h (2 Bft) O-NO 59 0 min 0,000 mm 0,6 UV-I 99 W/m 7,7 C 16,7 C 9,7 km/h (2 Bft) 100,00 %
04.03.2017 14:32 16,9 C 55 % 995,7 hPa 0,0 l/m 8,0 km/h (2 Bft) O-NO 65 0 min 0,000 mm 0,5 UV-I 101 W/m 7,8 C 16,1 C 11,3 km/h (2 Bft) 100,00 %
04.03.2017 14:34 16,9 C 56 % 995,7 hPa 0,0 l/m 7,3 km/h (2 Bft) O-NO 59 0 min 0,000 mm 0,5 UV-I 102 W/m 8,1 C 16,4 C 11,3 km/h (2 Bft) 100,00 %
04.03.2017 14:36 16,7 C 58 % 995,7 hPa 0,0 l/m 6,3 km/h (2 Bft) O-NO 65 0 min 0,000 mm 0,4 UV-I 99 W/m 8,4 C 16,7 C 9,7 km/h (2 Bft) 100,00 %
04.03.2017 14:38 16,5 C 59 % 995,7 hPa 0,0 l/m 6,1 km/h (2 Bft) O-NO 70 0 min 0,000 mm 0,0 UV-I 97 W/m 8,5 C 16,5 C 8,0 km/h (2 Bft) 100,00 %
04.03.2017 14:40 16,4 C 58 % 995,7 hPa 0,0 l/m 5,0 km/h (1 Bft) O-NO 69 0 min 0,000 mm 0,0 UV-I 95 W/m 8,1 C 16,4 C 6,4 km/h (2 Bft) 100,00 %
04.03.2017 14:42 16,4 C 59 % 995,8 hPa 0,0 l/m 4,5 km/h (1 Bft) O-NO 57 0 min 0,000 mm 0,0 UV-I 96 W/m 8,4 C 16,4 C 8,0 km/h (2 Bft) 95,74 %
04.03.2017 14:44 16,4 C 60 % 995,8 hPa 0,0 l/m 5,4 km/h (1 Bft) O-NO 61 0 min 0,000 mm 0,0 UV-I 98 W/m 8,6 C 16,4 C 8,0 km/h (2 Bft) 98,00 %
04.03.2017 14:46 16,3 C 60 % 995,7 hPa 0,0 l/m 4,7 km/h (1 Bft) O-NO 65 0 min 0,000 mm 0,0 UV-I 101 W/m 8,5 C 16,3 C 6,4 km/h (2 Bft) 94,74 %
04.03.2017 14:48 16,2 C 60 % 995,6 hPa 0,0 l/m 4,9 km/h (1 Bft) O-NO 57 0 min 0,000 mm 0,0 UV-I 102 W/m 8,4 C 16,2 C 8,0 km/h (2 Bft) 96,61 %
04.03.2017 14:50 16,2 C 61 % 995,6 hPa 0,0 l/m 4,8 km/h (1 Bft) O-NO 77 0 min 0,000 mm 0,0 UV-I 103 W/m 8,7 C 16,2 C 6,4 km/h (2 Bft) 97,56 %
04.03.2017 14:52 16,0 C 62 % 995,7 hPa 0,0 l/m 3,5 km/h (1 Bft) O-NO 77 0 min 0,000 mm 0,0 UV-I 105 W/m 8,7 C 16,0 C 4,8 km/h (1 Bft) 97,87 %
04.03.2017 14:54 15,8 C 63 % 995,7 hPa 0,0 l/m 3,8 km/h (1 Bft) O-NO 77 0 min 0,000 mm 0,0 UV-I 112 W/m 8,8 C 15,8 C 6,4 km/h (2 Bft) 96,00 %
04.03.2017 14:56 15,8 C 63 % 995,7 hPa 0,0 l/m 2,8 km/h (1 Bft) O 88 0 min 0,000 mm 0,0 UV-I 117 W/m 8,8 C 15,8 C 4,8 km/h (1 Bft) 97,56 %
04.03.2017 14:58 15,8 C 62 % 995,8 hPa 0,0 l/m 1,9 km/h (1 Bft) SO 136 0 min 0,000 mm 0,0 UV-I 120 W/m 8,5 C 15,8 C 4,8 km/h (1 Bft) 98,00 %
04.03.2017 15:00 15,8 C 61 % 995,7 hPa 0,0 l/m 2,5 km/h (1 Bft) SO 136 0 min 0,152 mm 0,0 UV-I 118 W/m 8,3 C 15,8 C 4,8 km/h (1 Bft) 98,00 %
04.03.2017 15:02 15,8 C 63 % 995,6 hPa 0,0 l/m 3,2 km/h (1 Bft) SO 137 0 min 0,000 mm 0,0 UV-I 116 W/m 8,8 C 15,8 C 4,8 km/h (1 Bft) 97,56 %
04.03.2017 15:04 15,8 C 61 % 995,5 hPa 0,0 l/m 4,8 km/h (1 Bft) O-SO 123 0 min 0,000 mm 0,0 UV-I 113 W/m 8,3 C 15,8 C 9,7 km/h (2 Bft) 98,00 %
04.03.2017 15:06 16,0 C 59 % 995,5 hPa 0,0 l/m 3,1 km/h (1 Bft) SO 138 0 min 0,000 mm 0,0 UV-I 111 W/m 8,0 C 16,0 C 6,4 km/h (2 Bft) 100,00 %
04.03.2017 15:08 16,1 C 59 % 995,6 hPa 0,0 l/m 3,9 km/h (1 Bft) S-SO 154 0 min 0,000 mm 0,0 UV-I 111 W/m 8,1 C 16,1 C 8,0 km/h (2 Bft) 100,00 %
04.03.2017 15:10 16,1 C 58 % 995,6 hPa 0,0 l/m 3,0 km/h (1 Bft) SO 145 0 min 0,000 mm 0,0 UV-I 110 W/m 7,8 C 16,1 C 6,4 km/h (2 Bft) 98,00 %
04.03.2017 15:12 16,2 C 54 % 995,6 hPa 0,0 l/m 4,4 km/h (1 Bft) SO 138 0 min 0,000 mm 0,0 UV-I 109 W/m 6,9 C 16,2 C 6,4 km/h (2 Bft) 100,00 %
04.03.2017 15:14 16,3 C 50 % 995,5 hPa 0,0 l/m 7,3 km/h (2 Bft) SO 125 0 min 0,000 mm 0,0 UV-I 109 W/m 5,9 C 15,8 C 12,9 km/h (3 Bft) 100,00 %
04.03.2017 15:16 16,4 C 48 % 995,4 hPa 0,0 l/m 5,8 km/h (2 Bft) SO 132 0 min 0,000 mm 0,0 UV-I 110 W/m 5,4 C 16,4 C 11,3 km/h (2 Bft) 98,18 %
04.03.2017 15:18 16,3 C 48 % 995,4 hPa 0,0 l/m 6,0 km/h (2 Bft) O 95 0 min 0,000 mm 0,0 UV-I 113 W/m 5,3 C 16,3 C 12,9 km/h (3 Bft) 100,00 %
04.03.2017 15:20 16,3 C 46 % 995,4 hPa 0,0 l/m 5,0 km/h (1 Bft) SO 145 0 min 0,000 mm 0,0 UV-I 115 W/m 4,7 C 16,3 C 11,3 km/h (2 Bft) 100,00 %
04.03.2017 15:22 16,3 C 47 % 995,3 hPa 0,0 l/m 4,1 km/h (1 Bft) O-SO 117 0 min 0,000 mm 0,0 UV-I 117 W/m 5,0 C 16,3 C 6,4 km/h (2 Bft) 100,00 %
04.03.2017 15:24 16,2 C 46 % 995,3 hPa 0,0 l/m 4,8 km/h (1 Bft) O-SO 111 0 min 0,000 mm 0,0 UV-I 119 W/m 4,6 C 16,2 C 6,4 km/h (2 Bft) 100,00 %
04.03.2017 15:26 16,2 C 46 % 995,2 hPa 0,0 l/m 3,7 km/h (1 Bft) O 95 0 min 0,000 mm 0,0 UV-I 120 W/m 4,6 C 16,2 C 4,8 km/h (1 Bft) 100,00 %
04.03.2017 15:28 16,2 C 43 % 995,2 hPa 0,0 l/m 7,5 km/h (2 Bft) O-SO 105 0 min 0,000 mm 0,0 UV-I 120 W/m 3,6 C 15,6 C 11,3 km/h (2 Bft) 98,00 %
04.03.2017 15:30 16,2 C 44 % 995,2 hPa 0,0 l/m 8,1 km/h (2 Bft) O-SO 104 0 min 0,000 mm 0,0 UV-I 120 W/m 3,9 C 15,3 C 11,3 km/h (2 Bft) 95,74 %
04.03.2017 15:32 16,1 C 42 % 995,2 hPa 0,0 l/m 8,0 km/h (2 Bft) O-SO 107 0 min 0,000 mm 0,0 UV-I 118 W/m 3,2 C 15,3 C 11,3 km/h (2 Bft) 100,00 %
04.03.2017 15:34 16,1 C 42 % 995,1 hPa 0,0 l/m 5,9 km/h (2 Bft) O 82 0 min 0,000 mm 0,0 UV-I 116 W/m 3,2 C 16,1 C 11,3 km/h (2 Bft) 100,00 %
04.03.2017 15:36 16,1 C 43 % 995,2 hPa 0,0 l/m 5,7 km/h (1 Bft) O-NO 74 0 min 0,000 mm 0,0 UV-I 114 W/m 3,5 C 16,1 C 9,7 km/h (2 Bft) 100,00 %
04.03.2017 15:38 16,1 C 43 % 995,2 hPa 0,0 l/m 6,2 km/h (2 Bft) O 96 0 min 0,000 mm 0,0 UV-I 113 W/m 3,5 C 16,1 C 9,7 km/h (2 Bft) 97,87 %
04.03.2017 15:40 16,0 C 42 % 995,1 hPa 0,0 l/m 6,6 km/h (2 Bft) O-NO 68 0 min 0,000 mm 0,0 UV-I 110 W/m 3,1 C 15,9 C 11,3 km/h (2 Bft) 97,37 %
04.03.2017 15:42 16,1 C 41 % 995,1 hPa 0,0 l/m 7,5 km/h (2 Bft) O-NO 74 0 min 0,000 mm 0,0 UV-I 105 W/m 2,8 C 15,5 C 11,3 km/h (2 Bft) 97,87 %
04.03.2017 15:44 16,1 C 41 % 995,1 hPa 0,0 l/m 6,7 km/h (2 Bft) O 88 0 min 0,000 mm 0,0 UV-I 100 W/m 2,8 C 16,0 C 11,3 km/h (2 Bft) 97,87 %
04.03.2017 15:46 16,1 C 40 % 995,1 hPa 0,0 l/m 7,8 km/h (2 Bft) O 93 0 min 0,000 mm 0,0 UV-I 95 W/m 2,5 C 15,4 C 12,9 km/h (3 Bft) 98,00 %
04.03.2017 15:48 16,0 C 42 % 995,1 hPa 0,0 l/m 9,1 km/h (2 Bft) O-SO 118 0 min 0,000 mm 0,0 UV-I 91 W/m 3,1 C 14,6 C 14,5 km/h (3 Bft) 96,23 %
04.03.2017 15:50 15,9 C 41 % 995,0 hPa 0,0 l/m 10,9 km/h (2 Bft) O-SO 120 0 min 0,000 mm 0,0 UV-I 87 W/m 2,7 C 13,7 C 16,1 km/h (3 Bft) 97,14 %
04.03.2017 15:52 16,0 C 40 % 995,1 hPa 0,0 l/m 8,9 km/h (2 Bft) O-SO 119 0 min 0,000 mm 0,0 UV-I 83 W/m 2,4 C 14,7 C 19,3 km/h (3 Bft) 96,00 %
04.03.2017 15:54 16,0 C 39 % 995,1 hPa 0,0 l/m 6,9 km/h (2 Bft) SO 136 0 min 0,000 mm 0,0 UV-I 79 W/m 2,1 C 15,7 C 17,7 km/h (3 Bft) 98,00 %
04.03.2017 15:56 16,1 C 37 % 995,1 hPa 0,0 l/m 9,4 km/h (2 Bft) SO 136 0 min 0,000 mm 0,0 UV-I 74 W/m 1,4 C 14,6 C 14,5 km/h (3 Bft) 97,62 %
04.03.2017 15:59 16,2 C 38 % 995,1 hPa 0,0 l/m 12,7 km/h (3 Bft) O-NO 72 0 min 0,000 mm 0,0 UV-I 71 W/m 1,9 C 13,4 C 19,3 km/h (3 Bft) 97,47 %
04.03.2017 16:00 16,2 C 37 % 995,0 hPa 0,0 l/m 13,6 km/h (3 Bft) O-SO 106 0 min 0,000 mm 0,0 UV-I 69 W/m 1,5 C 13,1 C 16,1 km/h (3 Bft) 100,00 %
04.03.2017 16:04 16,0 C 37 % 995,1 hPa 0,0 l/m 8,6 km/h (2 Bft) O-SO 115 0 min 0,102 mm 0,0 UV-I 65 W/m 1,3 C 14,9 C 12,9 km/h (3 Bft) 96,23 %
04.03.2017 16:06 16,0 C 37 % 995,1 hPa 0,0 l/m 10,7 km/h (2 Bft) O-SO 117 0 min 0,000 mm 0,0 UV-I 63 W/m 1,3 C 13,9 C 14,5 km/h (3 Bft) 100,00 %
04.03.2017 16:08 16,1 C 37 % 995,0 hPa 0,0 l/m 13,2 km/h (3 Bft) O 90 0 min 0,000 mm 0,0 UV-I 62 W/m 1,4 C 13,1 C 17,7 km/h (3 Bft) 95,74 %
04.03.2017 16:10 16,0 C 38 % 994,9 hPa 0,0 l/m 7,7 km/h (2 Bft) O-SO 104 0 min 0,000 mm 0,0 UV-I 61 W/m 1,7 C 15,3 C 12,9 km/h (3 Bft) 95,74 %
04.03.2017 16:12 16,0 C 36 % 994,9 hPa 0,0 l/m 13,4 km/h (3 Bft) O 79 0 min 0,000 mm 0,0 UV-I 60 W/m 0,9 C 12,9 C 19,3 km/h (3 Bft) 97,87 %
04.03.2017 16:14 16,0 C 37 % 994,9 hPa 0,0 l/m 9,5 km/h (2 Bft) O-SO 103 0 min 0,000 mm 0,0 UV-I 60 W/m 1,3 C 14,4 C 12,9 km/h (3 Bft) 100,00 %
04.03.2017 16:16 15,9 C 36 % 994,9 hPa 0,0 l/m 8,8 km/h (2 Bft) O 86 0 min 0,000 mm 0,0 UV-I 60 W/m 0,9 C 14,7 C 12,9 km/h (3 Bft) 97,87 %
04.03.2017 16:18 16,0 C 37 % 994,9 hPa 0,0 l/m 9,0 km/h (2 Bft) O 86 0 min 0,000 mm 0,0 UV-I 60 W/m 1,3 C 14,7 C 14,5 km/h (3 Bft) 100,00 %
04.03.2017 16:20 16,0 C 37 % 994,9 hPa 0,0 l/m 9,6 km/h (2 Bft) O-SO 113 0 min 0,000 mm 0,0 UV-I 60 W/m 1,3 C 14,4 C 12,9 km/h (3 Bft) 97,87 %
04.03.2017 16:22 15,9 C 37 % 994,9 hPa 0,0 l/m 7,6 km/h (2 Bft) O-NO 65 0 min 0,000 mm 0,0 UV-I 60 W/m 1,2 C 15,3 C 11,3 km/h (2 Bft) 100,00 %
04.03.2017 16:24 16,0 C 37 % 994,8 hPa 0,0 l/m 9,4 km/h (2 Bft) O-NO 76 0 min 0,000 mm 0,0 UV-I 60 W/m 1,3 C 14,5 C 14,5 km/h (3 Bft) 100,00 %
04.03.2017 16:26 16,0 C 37 % 994,8 hPa 0,0 l/m 12,3 km/h (3 Bft) O-NO 76 0 min 0,000 mm 0,0 UV-I 60 W/m 1,3 C 13,3 C 17,7 km/h (3 Bft) 100,00 %
04.03.2017 16:29 15,9 C 37 % 994,8 hPa 0,0 l/m 14,6 km/h (3 Bft) O 79 0 min 0,000 mm 0,0 UV-I 59 W/m 1,2 C 12,4 C 24,1 km/h (4 Bft) 97,50 %
04.03.2017 16:30 15,9 C 38 % 994,8 hPa 0,0 l/m 13,3 km/h (3 Bft) O-NO 78 0 min 0,000 mm 0,0 UV-I 58 W/m 1,6 C 12,8 C 16,1 km/h (3 Bft) 100,00 %
04.03.2017 16:32 15,8 C 41 % 994,9 hPa 0,0 l/m 13,3 km/h (3 Bft) O 88 0 min 0,000 mm 0,0 UV-I 58 W/m 2,6 C 12,7 C 17,7 km/h (3 Bft) 96,23 %
04.03.2017 16:34 15,6 C 40 % 995,0 hPa 0,0 l/m 11,9 km/h (2 Bft) O 98 0 min 0,000 mm 0,0 UV-I 58 W/m 2,1 C 13,0 C 17,7 km/h (3 Bft) 100,00 %
04.03.2017 16:36 15,6 C 39 % 994,9 hPa 0,0 l/m 15,9 km/h (3 Bft) O-NO 75 0 min 0,000 mm 0,0 UV-I 56 W/m 1,7 C 11,6 C 22,5 km/h (4 Bft) 100,00 %
04.03.2017 16:38 15,6 C 40 % 994,9 hPa 0,0 l/m 14,3 km/h (3 Bft) O 97 0 min 0,000 mm 0,0 UV-I 55 W/m 2,1 C 12,1 C 17,7 km/h (3 Bft) 96,00 %
04.03.2017 16:40 15,6 C 40 % 994,9 hPa 0,0 l/m 11,9 km/h (2 Bft) O 79 0 min 0,000 mm 0,0 UV-I 54 W/m 2,1 C 13,0 C 16,1 km/h (3 Bft) 98,00 %
04.03.2017 16:42 15,4 C 40 % 994,9 hPa 0,0 l/m 11,9 km/h (2 Bft) O 98 0 min 0,000 mm 0,0 UV-I 53 W/m 1,9 C 12,8 C 16,1 km/h (3 Bft) 97,87 %
04.03.2017 16:44 15,4 C 41 % 994,8 hPa 0,0 l/m 12,6 km/h (3 Bft) NO 49 0 min 0,000 mm 0,0 UV-I 50 W/m 2,2 C 12,5 C 17,7 km/h (3 Bft) 100,00 %
04.03.2017 16:46 15,4 C 43 % 994,9 hPa 0,0 l/m 12,0 km/h (2 Bft) O 87 0 min 0,000 mm 0,0 UV-I 49 W/m 2,9 C 12,7 C 17,7 km/h (3 Bft) 100,00 %
04.03.2017 16:48 15,2 C 42 % 994,9 hPa 0,0 l/m 6,8 km/h (2 Bft) O-NO 69 0 min 0,000 mm 0,0 UV-I 47 W/m 2,4 C 15,0 C 11,3 km/h (2 Bft) 100,00 %
04.03.2017 16:50 15,1 C 42 % 995,0 hPa 0,0 l/m 1,5 km/h (1 Bft) O 84 0 min 0,000 mm 0,0 UV-I 46 W/m 2,3 C 15,1 C 4,8 km/h (1 Bft) 100,00 %
04.03.2017 16:52 14,9 C 44 % 994,9 hPa 0,0 l/m 9,6 km/h (2 Bft) O-SO 103 0 min 0,000 mm 0,0 UV-I 43 W/m 2,8 C 13,2 C 14,5 km/h (3 Bft) 96,43 %
04.03.2017 16:54 14,9 C 43 % 994,9 hPa 0,0 l/m 10,3 km/h (2 Bft) O-NO 69 0 min 0,000 mm 0,0 UV-I 41 W/m 2,4 C 12,9 C 17,7 km/h (3 Bft) 100,00 %
04.03.2017 16:56 14,9 C 43 % 995,0 hPa 0,0 l/m 11,3 km/h (2 Bft) O-SO 105 0 min 0,000 mm 0,0 UV-I 40 W/m 2,4 C 12,4 C 16,1 km/h (3 Bft) 100,00 %
04.03.2017 16:59 15,0 C 43 % 995,0 hPa 0,0 l/m 12,0 km/h (2 Bft) O 84 0 min 0,000 mm 0,0 UV-I 38 W/m 2,5 C 12,3 C 17,7 km/h (3 Bft) 98,46 %
04.03.2017 17:00 14,9 C 43 % 995,0 hPa 0,0 l/m 4,1 km/h (1 Bft) O-SO 117 0 min 0,000 mm 0,0 UV-I 36 W/m 2,4 C 14,9 C 12,9 km/h (3 Bft) 100,00 %
04.03.2017 17:02 14,9 C 44 % 995,0 hPa 0,0 l/m 7,4 km/h (2 Bft) O-SO 107 0 min 0,127 mm 0,0 UV-I 34 W/m 2,8 C 14,3 C 12,9 km/h (3 Bft) 100,00 %
04.03.2017 17:04 14,9 C 43 % 994,9 hPa 0,0 l/m 9,4 km/h (2 Bft) O-NO 68 0 min 0,000 mm 0,0 UV-I 32 W/m 2,4 C 13,3 C 16,1 km/h (3 Bft) 100,00 %
04.03.2017 17:06 14,9 C 43 % 994,9 hPa 0,0 l/m 10,1 km/h (2 Bft) O 80 0 min 0,000 mm 0,0 UV-I 32 W/m 2,4 C 13,0 C 17,7 km/h (3 Bft) 100,00 %
04.03.2017 17:09 14,9 C 43 % 994,9 hPa 0,0 l/m 17,7 km/h (3 Bft) O-SO 113 0 min 0,000 mm 0,0 UV-I 29 W/m 2,4 C 10,2 C 25,7 km/h (4 Bft) 100,00 %
04.03.2017 17:10 14,9 C 43 % 994,9 hPa 0,0 l/m 16,0 km/h (3 Bft) O 94 0 min 0,000 mm 0,0 UV-I 28 W/m 2,4 C 10,7 C 20,9 km/h (4 Bft) 96,55 %
04.03.2017 17:12 15,0 C 43 % 994,8 hPa 0,0 l/m 14,0 km/h (3 Bft) O-NO 71 0 min 0,000 mm 0,0 UV-I 26 W/m 2,5 C 11,5 C 19,3 km/h (3 Bft) 100,00 %
04.03.2017 17:14 15,1 C 43 % 994,8 hPa 0,0 l/m 15,3 km/h (3 Bft) O-NO 59 0 min 0,000 mm 0,0 UV-I 25 W/m 2,6 C 11,2 C 22,5 km/h (4 Bft) 100,00 %
04.03.2017 17:16 15,0 C 43 % 994,8 hPa 0,0 l/m 10,7 km/h (2 Bft) O 98 0 min 0,000 mm 0,0 UV-I 25 W/m 2,5 C 12,8 C 17,7 km/h (3 Bft) 96,00 %
04.03.2017 17:19 14,9 C 43 % 995,0 hPa 0,0 l/m 12,1 km/h (2 Bft) O 90 0 min 0,000 mm 0,0 UV-I 23 W/m 2,4 C 12,1 C 19,3 km/h (3 Bft) 96,05 %
04.03.2017 17:20 14,9 C 43 % 995,0 hPa 0,0 l/m 15,0 km/h (3 Bft) O 83 0 min 0,000 mm 0,0 UV-I 23 W/m 2,4 C 11,1 C 20,9 km/h (4 Bft) 100,00 %
04.03.2017 17:22 14,9 C 42 % 994,9 hPa 0,0 l/m 16,2 km/h (3 Bft) O-SO 109 0 min 0,000 mm 0,0 UV-I 21 W/m 2,1 C 10,7 C 22,5 km/h (4 Bft) 98,08 %
04.03.2017 17:24 15,0 C 43 % 994,8 hPa 0,0 l/m 13,0 km/h (3 Bft) O-SO 119 0 min 0,000 mm 0,0 UV-I 21 W/m 2,5 C 11,9 C 17,7 km/h (3 Bft) 96,55 %
04.03.2017 17:26 15,0 C 43 % 994,7 hPa 0,0 l/m 12,0 km/h (2 Bft) O-NO 78 0 min 0,000 mm 0,0 UV-I 20 W/m 2,5 C 12,3 C 20,9 km/h (4 Bft) 97,06 %
04.03.2017 17:28 14,9 C 44 % 994,7 hPa 0,0 l/m 15,0 km/h (3 Bft) O 89 0 min 0,000 mm 0,0 UV-I 19 W/m 2,8 C 11,1 C 22,5 km/h (4 Bft) 96,00 %
04.03.2017 17:30 14,9 C 43 % 994,7 hPa 0,0 l/m 13,3 km/h (3 Bft) O 82 0 min 0,000 mm 0,0 UV-I 18 W/m 2,4 C 11,7 C 17,7 km/h (3 Bft) 97,73 %
04.03.2017 17:32 14,9 C 44 % 994,8 hPa 0,0 l/m 16,5 km/h (3 Bft) O-SO 107 0 min 0,000 mm 0,0 UV-I 18 W/m 2,8 C 10,6 C 25,7 km/h (4 Bft) 96,00 %
04.03.2017 17:34 14,8 C 44 % 994,7 hPa 0,0 l/m 11,1 km/h (2 Bft) O 82 0 min 0,000 mm 0,0 UV-I 20 W/m 2,7 C 12,4 C 17,7 km/h (3 Bft) 97,37 %
04.03.2017 17:36 14,7 C 44 % 994,6 hPa 0,0 l/m 13,3 km/h (3 Bft) O-NO 71 2 min 0,000 mm 0,0 UV-I 22 W/m 2,6 C 11,4 C 17,7 km/h (3 Bft) 97,87 %
04.03.2017 17:38 14,7 C 44 % 994,7 hPa 0,0 l/m 13,7 km/h (3 Bft) O 88 2 min 0,000 mm 0,0 UV-I 23 W/m 2,6 C 11,3 C 17,7 km/h (3 Bft) 98,00 %
04.03.2017 17:40 14,6 C 44 % 994,6 hPa 0,0 l/m 9,6 km/h (2 Bft) O 96 2 min 0,000 mm 0,0 UV-I 21 W/m 2,5 C 12,9 C 16,1 km/h (3 Bft) 92,68 %
04.03.2017 17:42 14,5 C 45 % 994,6 hPa 0,0 l/m 8,3 km/h (2 Bft) O 92 2 min 0,000 mm 0,0 UV-I 19 W/m 2,7 C 13,4 C 14,5 km/h (3 Bft) 94,92 %
04.03.2017 17:44 14,4 C 46 % 994,8 hPa 0,0 l/m 10,7 km/h (2 Bft) O 92 0 min 0,000 mm 0,0 UV-I 16 W/m 2,9 C 12,1 C 17,7 km/h (3 Bft) 97,37 %
04.03.2017 17:46 14,4 C 45 % 994,8 hPa 0,0 l/m 16,0 km/h (3 Bft) O 88 0 min 0,000 mm 0,0 UV-I 12 W/m 2,6 C 10,1 C 22,5 km/h (4 Bft) 95,45 %
04.03.2017 17:49 14,4 C 45 % 994,8 hPa 0,0 l/m 13,1 km/h (3 Bft) O 85 0 min 0,000 mm 0,0 UV-I 11 W/m 2,6 C 11,1 C 20,9 km/h (4 Bft) 93,98 %
04.03.2017 17:50 14,4 C 46 % 994,8 hPa 0,0 l/m 13,9 km/h (3 Bft) O-NO 65 0 min 0,000 mm 0,0 UV-I 9 W/m 2,9 C 10,9 C 17,7 km/h (3 Bft) 91,67 %
04.03.2017 17:52 14,4 C 46 % 994,7 hPa 0,0 l/m 14,8 km/h (3 Bft) O-NO 68 0 min 0,000 mm 0,0 UV-I 9 W/m 2,9 C 10,5 C 19,3 km/h (3 Bft) 91,11 %
04.03.2017 17:54 14,4 C 46 % 994,7 hPa 0,0 l/m 14,6 km/h (3 Bft) O-SO 107 0 min 0,000 mm 0,0 UV-I 7 W/m 2,9 C 10,6 C 19,3 km/h (3 Bft) 96,36 %
04.03.2017 17:56 14,3 C 46 % 994,7 hPa 0,0 l/m 13,1 km/h (3 Bft) O-NO 61 0 min 0,000 mm 0,0 UV-I 7 W/m 2,8 C 11,0 C 19,3 km/h (3 Bft) 95,24 %
04.03.2017 17:58 14,3 C 46 % 994,8 hPa 0,0 l/m 14,1 km/h (3 Bft) O 84 0 min 0,000 mm 0,0 UV-I 5 W/m 2,8 C 10,7 C 20,9 km/h (4 Bft) 92,45 %
04.03.2017 18:00 14,3 C 46 % 994,8 hPa 0,0 l/m 14,3 km/h (3 Bft) O-NO 64 0 min 0,000 mm 0,0 UV-I 5 W/m 2,8 C 10,6 C 22,5 km/h (4 Bft) 95,45 %
04.03.2017 18:02 14,3 C 47 % 994,8 hPa 0,0 l/m 13,8 km/h (3 Bft) O-NO 75 0 min 0,101 mm 0,0 UV-I 5 W/m 3,1 C 10,8 C 20,9 km/h (4 Bft) 95,74 %
04.03.2017 18:04 14,2 C 47 % 994,7 hPa 0,0 l/m 15,0 km/h (3 Bft) O-NO 61 0 min 0,000 mm 0,0 UV-I 0 W/m 3,1 C 10,2 C 22,5 km/h (4 Bft) 98,00 %
04.03.2017 18:06 14,2 C 47 % 994,7 hPa 0,0 l/m 17,9 km/h (3 Bft) O 90 0 min 0,000 mm 0,0 UV-I 0 W/m 3,1 C 9,3 C 25,7 km/h (4 Bft) 91,49 %
04.03.2017 18:08 14,2 C 47 % 994,8 hPa 0,0 l/m 12,6 km/h (3 Bft) O-NO 74 0 min 0,000 mm 0,0 UV-I 0 W/m 3,1 C 11,1 C 17,7 km/h (3 Bft) 97,56 %
04.03.2017 18:10 14,1 C 48 % 994,8 hPa 0,0 l/m 11,1 km/h (2 Bft) O-NO 59 0 min 0,000 mm 0,0 UV-I 0 W/m 3,3 C 11,6 C 19,3 km/h (3 Bft) 95,12 %
04.03.2017 18:12 14,1 C 48 % 994,9 hPa 0,0 l/m 13,9 km/h (3 Bft) O-NO 63 0 min 0,000 mm 0,0 UV-I 0 W/m 3,3 C 10,5 C 17,7 km/h (3 Bft) 92,59 %
04.03.2017 18:14 14,1 C 48 % 994,8 hPa 0,0 l/m 14,7 km/h (3 Bft) NO 53 0 min 0,000 mm 0,0 UV-I 0 W/m 3,3 C 10,2 C 20,9 km/h (4 Bft) 96,23 %
04.03.2017 18:16 14,0 C 48 % 994,9 hPa 0,0 l/m 13,1 km/h (3 Bft) O-NO 69 0 min 0,000 mm 0,0 UV-I 0 W/m 3,2 C 10,7 C 19,3 km/h (3 Bft) 91,43 %
04.03.2017 18:19 13,9 C 49 % 994,9 hPa 0,0 l/m 13,7 km/h (3 Bft) O-NO 76 0 min 0,000 mm 0,0 UV-I 0 W/m 3,4 C 10,3 C 19,3 km/h (3 Bft) 98,65 %
04.03.2017 18:20 13,9 C 48 % 994,9 hPa 0,0 l/m 18,0 km/h (3 Bft) O-NO 69 0 min 0,000 mm 0,0 UV-I 0 W/m 3,1 C 8,9 C 24,1 km/h (4 Bft) 96,55 %
04.03.2017 18:22 13,8 C 49 % 994,8 hPa 0,0 l/m 15,1 km/h (3 Bft) O-NO 67 0 min 0,000 mm 0,0 UV-I 0 W/m 3,3 C 9,7 C 22,5 km/h (4 Bft) 94,74 %
04.03.2017 18:24 13,9 C 48 % 994,9 hPa 0,0 l/m 17,1 km/h (3 Bft) O 82 0 min 0,000 mm 0,0 UV-I 0 W/m 3,1 C 9,2 C 25,7 km/h (4 Bft) 98,31 %
04.03.2017 18:26 13,9 C 48 % 995,0 hPa 0,0 l/m 14,0 km/h (3 Bft) O 88 0 min 0,000 mm 0,0 UV-I 0 W/m 3,1 C 10,2 C 19,3 km/h (3 Bft) 97,37 %
04.03.2017 18:29 13,8 C 48 % 995,0 hPa 0,0 l/m 13,4 km/h (3 Bft) O 86 0 min 0,000 mm 0,0 UV-I 0 W/m 3,0 C 10,3 C 17,7 km/h (3 Bft) 97,06 %
04.03.2017 18:30 13,8 C 48 % 995,0 hPa 0,0 l/m 9,7 km/h (2 Bft) O-NO 77 0 min 0,000 mm 0,0 UV-I 0 W/m 3,0 C 11,9 C 14,5 km/h (3 Bft) 100,00 %
04.03.2017 18:32 13,8 C 49 % 995,1 hPa 0,0 l/m 10,3 km/h (2 Bft) O-NO 78 0 min 0,000 mm 0,0 UV-I 0 W/m 3,3 C 11,6 C 19,3 km/h (3 Bft) 98,00 %
04.03.2017 18:34 13,7 C 49 % 995,1 hPa 0,0 l/m 10,5 km/h (2 Bft) O-NO 72 0 min 0,000 mm 0,0 UV-I 0 W/m 3,2 C 11,4 C 16,1 km/h (3 Bft) 100,00 %
04.03.2017 18:36 13,7 C 49 % 995,1 hPa 0,0 l/m 12,4 km/h (3 Bft) O 84 0 min 0,000 mm 0,0 UV-I 0 W/m 3,2 C 10,6 C 16,1 km/h (3 Bft) 100,00 %
04.03.2017 18:39 13,6 C 50 % 995,1 hPa 0,0 l/m 9,8 km/h (2 Bft) O-NO 57 0 min 0,000 mm 0,0 UV-I 0 W/m 3,4 C 11,7 C 16,1 km/h (3 Bft) 98,63 %
04.03.2017 18:40 13,6 C 50 % 995,1 hPa 0,0 l/m 8,4 km/h (2 Bft) O-NO 65 0 min 0,000 mm 0,0 UV-I 0 W/m 3,4 C 12,4 C 12,9 km/h (3 Bft) 94,44 %
04.03.2017 18:42 13,6 C 50 % 995,0 hPa 0,0 l/m 9,2 km/h (2 Bft) O-NO 57 0 min 0,000 mm 0,0 UV-I 0 W/m 3,4 C 12,0 C 12,9 km/h (3 Bft) 97,73 %
04.03.2017 18:44 13,4 C 51 % 995,0 hPa 0,0 l/m 10,8 km/h (2 Bft) O-NO 69 0 min 0,000 mm 0,0 UV-I 0 W/m 3,5 C 11,0 C 12,9 km/h (3 Bft) 100,00 %
04.03.2017 18:46 13,3 C 52 % 995,1 hPa 0,0 l/m 7,1 km/h (2 Bft) NO 54 0 min 0,000 mm 0,0 UV-I 0 W/m 3,7 C 12,9 C 12,9 km/h (3 Bft) 97,37 %
04.03.2017 18:48 13,2 C 52 % 995,1 hPa 0,0 l/m 7,4 km/h (2 Bft) NO 50 0 min 0,000 mm 0,0 UV-I 0 W/m 3,6 C 12,6 C 11,3 km/h (2 Bft) 100,00 %
04.03.2017 18:50 13,0 C 52 % 995,1 hPa 0,0 l/m 8,8 km/h (2 Bft) NO 53 0 min 0,000 mm 0,0 UV-I 0 W/m 3,4 C 11,5 C 14,5 km/h (3 Bft) 100,00 %
04.03.2017 18:52 12,9 C 52 % 995,1 hPa 0,0 l/m 10,7 km/h (2 Bft) O-NO 60 0 min 0,000 mm 0,0 UV-I 0 W/m 3,3 C 10,5 C 16,1 km/h (3 Bft) 95,65 %
04.03.2017 18:54 12,9 C 53 % 995,1 hPa 0,0 l/m 11,4 km/h (2 Bft) O-NO 61 0 min 0,000 mm 0,0 UV-I 0 W/m 3,6 C 10,1 C 16,1 km/h (3 Bft) 100,00 %
04.03.2017 18:56 12,9 C 53 % 995,1 hPa 0,0 l/m 10,0 km/h (2 Bft) O-NO 67 0 min 0,000 mm 0,0 UV-I 0 W/m 3,6 C 10,8 C 14,5 km/h (3 Bft) 100,00 %
04.03.2017 18:58 12,9 C 53 % 995,2 hPa 0,0 l/m 10,5 km/h (2 Bft) O-NO 64 0 min 0,000 mm 0,0 UV-I 0 W/m 3,6 C 10,5 C 14,5 km/h (3 Bft) 97,73 %
04.03.2017 19:00 12,8 C 54 % 995,1 hPa 0,0 l/m 12,1 km/h (2 Bft) O 88 0 min 0,000 mm 0,0 UV-I 0 W/m 3,7 C 9,7 C 17,7 km/h (3 Bft) 100,00 %
04.03.2017 19:02 12,7 C 53 % 995,1 hPa 0,0 l/m 12,4 km/h (3 Bft) O-NO 75 0 min 0,076 mm 0,0 UV-I 0 W/m 3,4 C 9,4 C 17,7 km/h (3 Bft) 100,00 %
04.03.2017 19:04 12,7 C 53 % 995,1 hPa 0,0 l/m 13,2 km/h (3 Bft) O-NO 76 0 min 0,000 mm 0,0 UV-I 0 W/m 3,4 C 9,1 C 19,3 km/h (3 Bft) 100,00 %
04.03.2017 19:06 12,8 C 53 % 995,1 hPa 0,0 l/m 11,3 km/h (2 Bft) O 101 0 min 0,000 mm 0,0 UV-I 0 W/m 3,5 C 10,1 C 16,1 km/h (3 Bft) 100,00 %
04.03.2017 19:09 12,8 C 53 % 995,2 hPa 0,0 l/m 13,0 km/h (3 Bft) O-SO 107 0 min 0,000 mm 0,0 UV-I 0 W/m 3,5 C 9,3 C 19,3 km/h (3 Bft) 100,00 %
04.03.2017 19:10 12,9 C 52 % 995,2 hPa 0,0 l/m 13,9 km/h (3 Bft) O-SO 109 0 min 0,000 mm 0,0 UV-I 0 W/m 3,3 C 9,1 C 16,1 km/h (3 Bft) 100,00 %
04.03.2017 19:12 12,9 C 53 % 995,3 hPa 0,0 l/m 11,9 km/h (2 Bft) SO 138 0 min 0,000 mm 0,0 UV-I 0 W/m 3,6 C 9,9 C 16,1 km/h (3 Bft) 100,00 %
04.03.2017 19:14 12,9 C 53 % 995,3 hPa 0,0 l/m 10,2 km/h (2 Bft) O-SO 105 0 min 0,000 mm 0,0 UV-I 0 W/m 3,6 C 10,7 C 19,3 km/h (3 Bft) 100,00 %
04.03.2017 19:16 12,9 C 52 % 995,3 hPa 0,0 l/m 13,0 km/h (3 Bft) SO 128 0 min 0,000 mm 0,0 UV-I 0 W/m 3,3 C 9,4 C 19,3 km/h (3 Bft) 96,23 %
04.03.2017 19:18 13,0 C 52 % 995,3 hPa 0,0 l/m 10,0 km/h (2 Bft) O-SO 107 0 min 0,000 mm 0,0 UV-I 0 W/m 3,4 C 10,9 C 14,5 km/h (3 Bft) 100,00 %
04.03.2017 19:20 12,9 C 52 % 995,3 hPa 0,0 l/m 6,9 km/h (2 Bft) O 84 0 min 0,000 mm 0,0 UV-I 0 W/m 3,3 C 12,6 C 11,3 km/h (2 Bft) 97,37 %
04.03.2017 19:22 12,9 C 52 % 995,4 hPa 0,0 l/m 9,9 km/h (2 Bft) O 94 0 min 0,000 mm 0,0 UV-I 0 W/m 3,3 C 10,8 C 14,5 km/h (3 Bft) 98,21 %
04.03.2017 19:24 13,0 C 52 % 995,4 hPa 0,0 l/m 10,2 km/h (2 Bft) O-SO 113 0 min 0,000 mm 0,0 UV-I 0 W/m 3,4 C 10,8 C 14,5 km/h (3 Bft) 97,37 %
04.03.2017 19:26 13,0 C 52 % 995,5 hPa 0,0 l/m 11,6 km/h (2 Bft) O 90 0 min 0,000 mm 0,0 UV-I 0 W/m 3,4 C 10,1 C 14,5 km/h (3 Bft) 100,00 %
04.03.2017 19:28 12,9 C 53 % 995,5 hPa 0,0 l/m 10,9 km/h (2 Bft) O 89 0 min 0,000 mm 0,0 UV-I 0 W/m 3,6 C 10,4 C 14,5 km/h (3 Bft) 100,00 %
04.03.2017 19:30 12,8 C 53 % 995,5 hPa 0,0 l/m 10,9 km/h (2 Bft) O 96 0 min 0,000 mm 0,0 UV-I 0 W/m 3,5 C 10,2 C 16,1 km/h (3 Bft) 100,00 %
04.03.2017 19:32 12,9 C 52 % 995,5 hPa 0,0 l/m 13,7 km/h (3 Bft) O-SO 118 0 min 0,000 mm 0,0 UV-I 0 W/m 3,3 C 9,1 C 20,9 km/h (4 Bft) 100,00 %
04.03.2017 19:34 12,9 C 52 % 995,5 hPa 0,0 l/m 11,7 km/h (2 Bft) O 88 0 min 0,000 mm 0,0 UV-I 0 W/m 3,3 C 10,0 C 20,9 km/h (4 Bft) 100,00 %
04.03.2017 19:36 13,0 C 52 % 995,6 hPa 0,0 l/m 13,1 km/h (3 Bft) O-SO 117 0 min 0,000 mm 0,0 UV-I 0 W/m 3,4 C 9,5 C 16,1 km/h (3 Bft) 95,12 %
04.03.2017 19:38 12,9 C 53 % 995,6 hPa 0,0 l/m 12,5 km/h (3 Bft) O-SO 117 0 min 0,000 mm 0,0 UV-I 0 W/m 3,6 C 9,6 C 16,1 km/h (3 Bft) 100,00 %
04.03.2017 19:40 12,9 C 53 % 995,5 hPa 0,0 l/m 13,8 km/h (3 Bft) O-SO 109 0 min 0,000 mm 0,0 UV-I 0 W/m 3,6 C 9,1 C 17,7 km/h (3 Bft) 98,11 %
04.03.2017 19:42 12,8 C 53 % 995,5 hPa 0,0 l/m 13,9 km/h (3 Bft) O 91 0 min 0,000 mm 0,0 UV-I 0 W/m 3,5 C 8,9 C 17,7 km/h (3 Bft) 98,00 %
04.03.2017 19:44 12,8 C 53 % 995,5 hPa 0,0 l/m 12,9 km/h (3 Bft) O-SO 105 0 min 0,000 mm 0,0 UV-I 0 W/m 3,5 C 9,4 C 17,7 km/h (3 Bft) 100,00 %
04.03.2017 19:46 12,8 C 53 % 995,6 hPa 0,0 l/m 10,1 km/h (2 Bft) SO 141 0 min 0,000 mm 0,0 UV-I 0 W/m 3,5 C 10,6 C 19,3 km/h (3 Bft) 100,00 %
04.03.2017 19:48 12,8 C 53 % 995,6 hPa 0,0 l/m 11,9 km/h (2 Bft) SO 146 0 min 0,000 mm 0,0 UV-I 0 W/m 3,5 C 9,8 C 19,3 km/h (3 Bft) 94,34 %
04.03.2017 19:50 12,8 C 53 % 995,7 hPa 0,0 l/m 12,7 km/h (3 Bft) SO 137 0 min 0,000 mm 0,0 UV-I 0 W/m 3,5 C 9,4 C 17,7 km/h (3 Bft) 97,62 %
04.03.2017 19:52 12,8 C 53 % 995,6 hPa 0,0 l/m 9,6 km/h (2 Bft) SO 135 0 min 0,000 mm 0,0 UV-I 0 W/m 3,5 C 10,9 C 14,5 km/h (3 Bft) 95,12 %
04.03.2017 19:54 12,7 C 53 % 995,7 hPa 0,0 l/m 10,2 km/h (2 Bft) SO 127 0 min 0,000 mm 0,0 UV-I 0 W/m 3,4 C 10,5 C 16,1 km/h (3 Bft) 96,55 %
04.03.2017 19:56 12,7 C 54 % 995,7 hPa 0,0 l/m 8,8 km/h (2 Bft) O-SO 119 0 min 0,000 mm 0,0 UV-I 0 W/m 3,6 C 11,2 C 12,9 km/h (3 Bft) 95,56 %
04.03.2017 19:58 12,6 C 54 % 995,6 hPa 0,0 l/m 9,4 km/h (2 Bft) O-SO 120 0 min 0,000 mm 0,0 UV-I 0 W/m 3,5 C 10,8 C 14,5 km/h (3 Bft) 98,00 %
04.03.2017 20:00 12,6 C 54 % 995,6 hPa 0,0 l/m 10,2 km/h (2 Bft) SO 131 0 min 0,077 mm 0,0 UV-I 0 W/m 3,5 C 10,4 C 14,5 km/h (3 Bft) 94,74 %
04.03.2017 20:02 12,5 C 54 % 995,6 hPa 0,0 l/m 12,9 km/h (3 Bft) SO 137 0 min 0,000 mm 0,0 UV-I 0 W/m 3,5 C 9,0 C 16,1 km/h (3 Bft) 92,45 %
04.03.2017 20:04 12,5 C 55 % 995,7 hPa 0,0 l/m 9,8 km/h (2 Bft) O-SO 107 0 min 0,000 mm 0,0 UV-I 0 W/m 3,7 C 10,5 C 14,5 km/h (3 Bft) 96,00 %
04.03.2017 20:06 12,4 C 55 % 995,8 hPa 0,0 l/m 8,6 km/h (2 Bft) S-SO 148 0 min 0,000 mm 0,0 UV-I 0 W/m 3,6 C 11,0 C 14,5 km/h (3 Bft) 95,45 %
04.03.2017 20:08 12,4 C 54 % 995,8 hPa 0,0 l/m 3,7 km/h (1 Bft) SO 133 0 min 0,000 mm 0,0 UV-I 0 W/m 3,4 C 12,4 C 6,4 km/h (2 Bft) 100,00 %
04.03.2017 20:10 12,3 C 55 % 995,8 hPa 0,0 l/m 3,2 km/h (1 Bft) S-SO 161 0 min 0,000 mm 0,0 UV-I 0 W/m 3,5 C 12,3 C 6,4 km/h (2 Bft) 96,23 %
04.03.2017 20:12 12,3 C 55 % 995,7 hPa 0,0 l/m 3,4 km/h (1 Bft) SO 144 0 min 0,000 mm 0,0 UV-I 0 W/m 3,5 C 12,3 C 6,4 km/h (2 Bft) 100,00 %
04.03.2017 20:14 12,2 C 55 % 995,7 hPa 0,0 l/m 7,2 km/h (2 Bft) O-SO 107 0 min 0,000 mm 0,0 UV-I 0 W/m 3,4 C 11,7 C 14,5 km/h (3 Bft) 98,00 %
04.03.2017 20:16 11,9 C 56 % 995,7 hPa 0,0 l/m 11,9 km/h (2 Bft) O 100 0 min 0,000 mm 0,0 UV-I 0 W/m 3,4 C 8,7 C 14,5 km/h (3 Bft) 97,56 %
04.03.2017 20:18 12,0 C 55 % 995,6 hPa 0,0 l/m 12,8 km/h (3 Bft) O-SO 113 0 min 0,000 mm 0,0 UV-I 0 W/m 3,2 C 8,5 C 17,7 km/h (3 Bft) 96,43 %
04.03.2017 20:20 12,3 C 55 % 995,7 hPa 0,0 l/m 8,4 km/h (2 Bft) S-SO 161 0 min 0,000 mm 0,0 UV-I 0 W/m 3,5 C 11,0 C 14,5 km/h (3 Bft) 98,11 %
04.03.2017 20:22 12,4 C 54 % 995,7 hPa 0,0 l/m 3,5 km/h (1 Bft) SO 143 0 min 0,000 mm 0,0 UV-I 0 W/m 3,4 C 12,4 C 6,4 km/h (2 Bft) 95,12 %
04.03.2017 20:24 12,5 C 53 % 995,7 hPa 0,0 l/m 5,1 km/h (1 Bft) SO 136 0 min 0,000 mm 0,0 UV-I 0 W/m 3,2 C 12,5 C 8,0 km/h (2 Bft) 100,00 %
04.03.2017 20:26 12,3 C 55 % 995,8 hPa 0,0 l/m 7,0 km/h (2 Bft) SO 142 0 min 0,000 mm 0,0 UV-I 0 W/m 3,5 C 11,9 C 11,3 km/h (2 Bft) 98,00 %
04.03.2017 20:28 11,9 C 56 % 995,7 hPa 0,0 l/m 5,5 km/h (1 Bft) SO 136 0 min 0,000 mm 0,0 UV-I 0 W/m 3,4 C 11,9 C 8,0 km/h (2 Bft) 98,00 %
04.03.2017 20:30 11,7 C 58 % 995,7 hPa 0,0 l/m 8,4 km/h (2 Bft) O-SO 123 0 min 0,000 mm 0,0 UV-I 0 W/m 3,7 C 10,4 C 12,9 km/h (3 Bft) 98,00 %
04.03.2017 20:32 11,4 C 58 % 995,6 hPa 0,0 l/m 6,1 km/h (2 Bft) SO 145 0 min 0,000 mm 0,0 UV-I 0 W/m 3,4 C 11,4 C 12,9 km/h (3 Bft) 97,22 %
04.03.2017 20:34 11,5 C 58 % 995,6 hPa 0,0 l/m 5,7 km/h (1 Bft) SO 142 0 min 0,000 mm 0,0 UV-I 0 W/m 3,5 C 11,5 C 8,0 km/h (2 Bft) 100,00 %
04.03.2017 20:36 11,4 C 59 % 995,6 hPa 0,0 l/m 7,6 km/h (2 Bft) SO 138 0 min 0,000 mm 0,0 UV-I 0 W/m 3,7 C 10,6 C 11,3 km/h (2 Bft) 100,00 %
04.03.2017 20:38 11,3 C 59 % 995,6 hPa 0,0 l/m 9,2 km/h (2 Bft) S-SO 152 0 min 0,000 mm 0,0 UV-I 0 W/m 3,6 C 9,5 C 12,9 km/h (3 Bft) 100,00 %
04.03.2017 20:40 11,2 C 60 % 995,6 hPa 0,0 l/m 8,8 km/h (2 Bft) SO 138 0 min 0,000 mm 0,0 UV-I 0 W/m 3,7 C 9,6 C 14,5 km/h (3 Bft) 100,00 %
04.03.2017 20:42 11,3 C 58 % 995,7 hPa 0,0 l/m 7,5 km/h (2 Bft) SO 128 0 min 0,000 mm 0,0 UV-I 0 W/m 3,3 C 10,5 C 12,9 km/h (3 Bft) 100,00 %
04.03.2017 20:44 11,5 C 58 % 995,8 hPa 0,0 l/m 7,1 km/h (2 Bft) O-SO 121 0 min 0,000 mm 0,0 UV-I 0 W/m 3,5 C 11,0 C 11,3 km/h (2 Bft) 100,00 %
04.03.2017 20:46 11,4 C 56 % 995,6 hPa 0,0 l/m 6,7 km/h (2 Bft) O 84 0 min 0,000 mm 0,0 UV-I 0 W/m 2,9 C 11,2 C 11,3 km/h (2 Bft) 100,00 %
04.03.2017 20:48 11,8 C 56 % 995,7 hPa 0,0 l/m 6,1 km/h (2 Bft) SO 134 0 min 0,000 mm 0,0 UV-I 0 W/m 3,3 C 11,8 C 9,7 km/h (2 Bft) 96,23 %
04.03.2017 20:50 11,8 C 57 % 995,8 hPa 0,0 l/m 4,3 km/h (1 Bft) SO 141 0 min 0,000 mm 0,0 UV-I 0 W/m 3,6 C 11,8 C 8,0 km/h (2 Bft) 100,00 %
04.03.2017 20:52 11,7 C 57 % 995,8 hPa 0,0 l/m 6,7 km/h (2 Bft) O-SO 120 0 min 0,000 mm 0,0 UV-I 0 W/m 3,5 C 11,5 C 11,3 km/h (2 Bft) 100,00 %
04.03.2017 20:54 11,3 C 59 % 995,9 hPa 0,0 l/m 5,4 km/h (1 Bft) O-SO 115 0 min 0,000 mm 0,0 UV-I 0 W/m 3,6 C 11,3 C 6,4 km/h (2 Bft) 100,00 %
04.03.2017 20:56 11,2 C 59 % 995,9 hPa 0,0 l/m 3,7 km/h (1 Bft) O 84 0 min 0,000 mm 0,0 UV-I 0 W/m 3,5 C 11,2 C 6,4 km/h (2 Bft) 100,00 %
04.03.2017 20:58 11,2 C 59 % 995,9 hPa 0,0 l/m 4,8 km/h (1 Bft) S-SO 161 0 min 0,000 mm 0,0 UV-I 0 W/m 3,5 C 11,2 C 8,0 km/h (2 Bft) 95,12 %
04.03.2017 21:00 11,2 C 59 % 995,9 hPa 0,0 l/m 6,5 km/h (2 Bft) O-SO 118 0 min 0,000 mm 0,0 UV-I 0 W/m 3,5 C 11,2 C 9,7 km/h (2 Bft) 100,00 %
04.03.2017 21:02 11,1 C 59 % 995,9 hPa 0,0 l/m 4,8 km/h (1 Bft) O-SO 113 0 min 0,050 mm 0,0 UV-I 0 W/m 3,4 C 11,1 C 6,4 km/h (2 Bft) 100,00 %
04.03.2017 21:04 11,0 C 59 % 995,9 hPa 0,0 l/m 3,6 km/h (1 Bft) O-SO 113 0 min 0,000 mm 0,0 UV-I 0 W/m 3,3 C 11,0 C 6,4 km/h (2 Bft) 97,87 %
04.03.2017 21:06 11,1 C 59 % 996,0 hPa 0,0 l/m 1,0 km/h (0 Bft) O-SO 113 0 min 0,000 mm 0,0 UV-I 0 W/m 3,4 C 11,1 C 3,2 km/h (1 Bft) 100,00 %
04.03.2017 21:08 11,1 C 59 % 996,0 hPa 0,0 l/m 4,1 km/h (1 Bft) SO 134 0 min 0,000 mm 0,0 UV-I 0 W/m 3,4 C 11,1 C 6,4 km/h (2 Bft) 100,00 %
04.03.2017 21:10 10,9 C 61 % 996,0 hPa 0,0 l/m 2,8 km/h (1 Bft) SO 134 0 min 0,000 mm 0,0 UV-I 0 W/m 3,7 C 10,9 C 6,4 km/h (2 Bft) 100,00 %
04.03.2017 21:12 10,7 C 60 % 996,1 hPa 0,0 l/m 4,1 km/h (1 Bft) W-SW 238 0 min 0,000 mm 0,0 UV-I 0 W/m 3,3 C 10,7 C 11,3 km/h (2 Bft) 100,00 %
04.03.2017 21:14 10,5 C 62 % 996,1 hPa 0,0 l/m 7,3 km/h (2 Bft) SW 221 0 min 0,000 mm 0,0 UV-I 0 W/m 3,5 C 9,9 C 9,7 km/h (2 Bft) 100,00 %
04.03.2017 21:16 10,3 C 64 % 996,1 hPa 0,0 l/m 6,6 km/h (2 Bft) S 183 0 min 0,000 mm 0,0 UV-I 0 W/m 3,8 C 10,2 C 12,9 km/h (3 Bft) 95,74 %
04.03.2017 21:18 10,2 C 63 % 996,1 hPa 0,0 l/m 3,5 km/h (1 Bft) S 175 0 min 0,000 mm 0,0 UV-I 0 W/m 3,5 C 10,2 C 6,4 km/h (2 Bft) 100,00 %
04.03.2017 21:20 10,3 C 63 % 996,1 hPa 0,0 l/m 1,8 km/h (1 Bft) S 175 0 min 0,000 mm 0,0 UV-I 0 W/m 3,6 C 10,3 C 3,2 km/h (1 Bft) 100,00 %
04.03.2017 21:22 10,4 C 62 % 996,2 hPa 0,0 l/m 3,8 km/h (1 Bft) S 188 0 min 0,000 mm 0,0 UV-I 0 W/m 3,4 C 10,4 C 8,0 km/h (2 Bft) 100,00 %
04.03.2017 21:24 10,4 C 63 % 996,4 hPa 0,0 l/m 3,1 km/h (1 Bft) S 189 0 min 0,000 mm 0,0 UV-I 0 W/m 3,7 C 10,4 C 6,4 km/h (2 Bft) 100,00 %
04.03.2017 21:26 10,4 C 62 % 996,4 hPa 0,0 l/m 0,3 km/h (0 Bft) S 189 0 min 0,000 mm 0,0 UV-I 0 W/m 3,4 C 10,4 C 3,2 km/h (1 Bft) 100,00 %
04.03.2017 21:28 10,6 C 61 % 996,3 hPa 0,0 l/m 0,4 km/h (0 Bft) S 189 0 min 0,000 mm 0,0 UV-I 0 W/m 3,4 C 10,6 C 1,6 km/h (1 Bft) 100,00 %
04.03.2017 21:30 10,7 C 60 % 996,4 hPa 0,0 l/m 2,6 km/h (1 Bft) S 189 0 min 0,000 mm 0,0 UV-I 0 W/m 3,3 C 10,7 C 4,8 km/h (1 Bft) 96,00 %
04.03.2017 21:32 10,8 C 59 % 996,4 hPa 0,0 l/m 1,4 km/h (1 Bft) S 189 0 min 0,000 mm 0,0 UV-I 0 W/m 3,1 C 10,8 C 3,2 km/h (1 Bft) 97,56 %
04.03.2017 21:34 11,1 C 59 % 996,4 hPa 0,0 l/m 1,5 km/h (1 Bft) O-SO 113 0 min 0,000 mm 0,0 UV-I 0 W/m 3,4 C 11,1 C 9,7 km/h (2 Bft) 100,00 %
04.03.2017 21:36 10,7 C 61 % 996,3 hPa 0,0 l/m 3,8 km/h (1 Bft) O-SO 113 0 min 0,000 mm 0,0 UV-I 0 W/m 3,5 C 10,7 C 4,8 km/h (1 Bft) 100,00 %
04.03.2017 21:38 10,6 C 61 % 996,4 hPa 0,0 l/m 3,2 km/h (1 Bft) S-SW 210 0 min 0,000 mm 0,0 UV-I 0 W/m 3,4 C 10,6 C 8,0 km/h (2 Bft) 100,00 %
04.03.2017 21:40 10,6 C 60 % 996,4 hPa 0,0 l/m 4,3 km/h (1 Bft) S-SO 150 0 min 0,000 mm 0,0 UV-I 0 W/m 3,2 C 10,6 C 8,0 km/h (2 Bft) 100,00 %
04.03.2017 21:42 10,9 C 59 % 996,4 hPa 0,0 l/m 8,0 km/h (2 Bft) S-SO 161 0 min 0,000 mm 0,0 UV-I 0 W/m 3,2 C 9,8 C 14,5 km/h (3 Bft) 98,00 %
04.03.2017 21:45 11,2 C 58 % 996,4 hPa 0,0 l/m 8,0 km/h (2 Bft) SO 135 0 min 0,000 mm 0,0 UV-I 0 W/m 3,2 C 10,1 C 14,5 km/h (3 Bft) 100,00 %
04.03.2017 21:50 11,9 C 55 % 996,4 hPa 0,0 l/m 8,0 km/h (2 Bft) SO 135 0 min 0,000 mm 0,0 UV-I 0 W/m 3,2 C 10,8 C 16,1 km/h (3 Bft) 99,12 %
04.03.2017 21:55 12,7 C 49 % 996,4 hPa 0,0 l/m 6,4 km/h (2 Bft) S-SO 157 0 min 0,000 mm 0,0 UV-I 0 W/m 2,3 C 12,7 C 17,7 km/h (3 Bft) 100,00 %
04.03.2017 22:02 12,7 C 50 % 996,4 hPa 0,0 l/m 7,4 km/h (2 Bft) S-SO 148 0 min 0,026 mm 0,0 UV-I 0 W/m 2,6 C 12,1 C 12,9 km/h (3 Bft) 95,92 %
04.03.2017 22:04 12,6 C 50 % 996,5 hPa 0,0 l/m 7,2 km/h (2 Bft) S-SO 160 0 min 0,000 mm 0,0 UV-I 0 W/m 2,5 C 12,1 C 11,3 km/h (2 Bft) 98,00 %
04.03.2017 22:06 12,7 C 48 % 996,5 hPa 0,0 l/m 4,2 km/h (1 Bft) S-SO 160 0 min 0,000 mm 0,0 UV-I 0 W/m 2,0 C 12,7 C 9,7 km/h (2 Bft) 97,44 %
04.03.2017 22:08 13,0 C 47 % 996,5 hPa 0,0 l/m 6,0 km/h (2 Bft) S 175 0 min 0,000 mm 0,0 UV-I 0 W/m 2,0 C 13,0 C 9,7 km/h (2 Bft) 96,77 %
04.03.2017 22:10 13,2 C 47 % 996,7 hPa 0,0 l/m 6,4 km/h (2 Bft) SO 142 0 min 0,000 mm 0,0 UV-I 0 W/m 2,1 C 13,2 C 11,3 km/h (2 Bft) 97,73 %
04.03.2017 22:12 13,4 C 46 % 996,7 hPa 0,0 l/m 5,1 km/h (1 Bft) S-SO 162 0 min 0,000 mm 0,0 UV-I 0 W/m 2,0 C 13,4 C 8,0 km/h (2 Bft) 98,00 %
04.03.2017 22:14 13,4 C 46 % 996,8 hPa 0,0 l/m 5,8 km/h (2 Bft) S-SO 157 0 min 0,000 mm 0,0 UV-I 0 W/m 2,0 C 13,4 C 11,3 km/h (2 Bft) 94,87 %
04.03.2017 22:16 13,4 C 46 % 996,8 hPa 0,0 l/m 7,1 km/h (2 Bft) SO 145 0 min 0,000 mm 0,0 UV-I 0 W/m 2,0 C 13,0 C 12,9 km/h (3 Bft) 96,23 %
04.03.2017 22:18 13,4 C 46 % 996,8 hPa 0,0 l/m 7,1 km/h (2 Bft) S 169 0 min 0,000 mm 0,0 UV-I 0 W/m 2,0 C 13,0 C 12,9 km/h (3 Bft) 94,74 %
04.03.2017 22:20 13,4 C 46 % 996,8 hPa 0,0 l/m 4,9 km/h (1 Bft) SO 140 0 min 0,000 mm 0,0 UV-I 0 W/m 2,0 C 13,4 C 8,0 km/h (2 Bft) 95,74 %
04.03.2017 22:22 13,4 C 46 % 996,8 hPa 0,0 l/m 6,9 km/h (2 Bft) S-SO 167 0 min 0,000 mm 0,0 UV-I 0 W/m 2,0 C 13,1 C 14,5 km/h (3 Bft) 96,23 %
04.03.2017 22:24 13,2 C 47 % 996,7 hPa 0,0 l/m 7,4 km/h (2 Bft) S-SO 161 0 min 0,000 mm 0,0 UV-I 0 W/m 2,1 C 12,6 C 14,5 km/h (3 Bft) 95,45 %
04.03.2017 22:26 13,1 C 47 % 996,8 hPa 0,0 l/m 9,9 km/h (2 Bft) S-SO 156 0 min 0,000 mm 0,0 UV-I 0 W/m 2,0 C 11,1 C 20,9 km/h (4 Bft) 92,73 %
04.03.2017 22:28 13,1 C 47 % 996,7 hPa 0,0 l/m 7,1 km/h (2 Bft) S-SO 155 0 min 0,000 mm 0,0 UV-I 0 W/m 2,0 C 12,7 C 12,9 km/h (3 Bft) 94,74 %
04.03.2017 22:30 13,1 C 48 % 996,7 hPa 0,0 l/m 9,1 km/h (2 Bft) O-SO 118 0 min 0,000 mm 0,0 UV-I 0 W/m 2,3 C 11,5 C 16,1 km/h (3 Bft) 96,43 %
04.03.2017 22:32 12,8 C 49 % 996,8 hPa 0,0 l/m 8,9 km/h (2 Bft) SO 137 0 min 0,000 mm 0,0 UV-I 0 W/m 2,4 C 11,3 C 16,1 km/h (3 Bft) 94,29 %
04.03.2017 22:34 12,5 C 50 % 996,9 hPa 0,0 l/m 8,4 km/h (2 Bft) SO 134 0 min 0,000 mm 0,0 UV-I 0 W/m 2,4 C 11,2 C 12,9 km/h (3 Bft) 96,23 %
04.03.2017 22:36 12,3 C 50 % 996,9 hPa 0,0 l/m 6,8 km/h (2 Bft) SO 128 0 min 0,000 mm 0,0 UV-I 0 W/m 2,2 C 12,0 C 11,3 km/h (2 Bft) 97,73 %
04.03.2017 22:38 12,2 C 50 % 996,8 hPa 0,0 l/m 9,8 km/h (2 Bft) SO 138 0 min 0,000 mm 0,0 UV-I 0 W/m 2,1 C 10,1 C 14,5 km/h (3 Bft) 97,56 %
04.03.2017 22:40 12,1 C 51 % 996,7 hPa 0,0 l/m 6,8 km/h (2 Bft) O-SO 106 0 min 0,000 mm 0,0 UV-I 0 W/m 2,3 C 11,8 C 11,3 km/h (2 Bft) 97,62 %
04.03.2017 22:42 12,0 C 50 % 996,8 hPa 0,0 l/m 11,1 km/h (2 Bft) O 91 0 min 0,000 mm 0,0 UV-I 0 W/m 1,9 C 9,2 C 14,5 km/h (3 Bft) 96,88 %
04.03.2017 22:44 12,2 C 49 % 996,7 hPa 0,0 l/m 10,4 km/h (2 Bft) O-SO 105 0 min 0,000 mm 0,0 UV-I 0 W/m 1,8 C 9,8 C 16,1 km/h (3 Bft) 97,37 %
04.03.2017 22:46 12,6 C 48 % 996,8 hPa 0,0 l/m 10,4 km/h (2 Bft) O-SO 115 0 min 0,000 mm 0,0 UV-I 0 W/m 1,9 C 10,3 C 14,5 km/h (3 Bft) 98,11 %
04.03.2017 22:48 12,7 C 48 % 996,9 hPa 0,0 l/m 6,2 km/h (2 Bft) SO 139 0 min 0,000 mm 0,0 UV-I 0 W/m 2,0 C 12,7 C 11,3 km/h (2 Bft) 93,62 %
04.03.2017 22:50 12,4 C 50 % 996,9 hPa 0,0 l/m 4,2 km/h (1 Bft) O-SO 117 0 min 0,000 mm 0,0 UV-I 0 W/m 2,3 C 12,4 C 6,4 km/h (2 Bft) 96,00 %
04.03.2017 22:52 11,9 C 52 % 996,9 hPa 0,0 l/m 5,1 km/h (1 Bft) SO 130 0 min 0,000 mm 0,0 UV-I 0 W/m 2,4 C 11,9 C 8,0 km/h (2 Bft) 100,00 %
04.03.2017 22:54 11,6 C 52 % 996,9 hPa 0,0 l/m 3,5 km/h (1 Bft) SO 144 0 min 0,000 mm 0,0 UV-I 0 W/m 2,1 C 11,6 C 6,4 km/h (2 Bft) 96,77 %
04.03.2017 22:56 11,8 C 51 % 996,9 hPa 0,0 l/m 4,8 km/h (1 Bft) SO 142 0 min 0,000 mm 0,0 UV-I 0 W/m 2,0 C 11,8 C 8,0 km/h (2 Bft) 97,73 %
04.03.2017 22:58 12,1 C 52 % 997,0 hPa 0,0 l/m 6,0 km/h (2 Bft) O-SO 119 0 min 0,000 mm 0,0 UV-I 0 W/m 2,5 C 12,1 C 8,0 km/h (2 Bft) 98,21 %
04.03.2017 23:00 11,9 C 51 % 997,0 hPa 0,0 l/m 9,2 km/h (2 Bft) O-SO 112 0 min 0,051 mm 0,0 UV-I 0 W/m 2,1 C 10,1 C 12,9 km/h (3 Bft) 97,56 %
04.03.2017 23:02 11,6 C 52 % 997,0 hPa 0,0 l/m 8,0 km/h (2 Bft) O-SO 108 0 min 0,000 mm 0,0 UV-I 0 W/m 2,1 C 10,5 C 12,9 km/h (3 Bft) 97,73 %
04.03.2017 23:04 11,5 C 52 % 997,1 hPa 0,0 l/m 10,7 km/h (2 Bft) O-SO 122 0 min 0,000 mm 0,0 UV-I 0 W/m 2,0 C 8,9 C 14,5 km/h (3 Bft) 97,56 %
04.03.2017 23:06 11,7 C 51 % 997,0 hPa 0,0 l/m 10,9 km/h (2 Bft) O 100 0 min 0,000 mm 0,0 UV-I 0 W/m 1,9 C 9,0 C 17,7 km/h (3 Bft) 98,28 %
04.03.2017 23:08 11,9 C 51 % 997,0 hPa 0,0 l/m 12,5 km/h (3 Bft) SO 128 0 min 0,000 mm 0,0 UV-I 0 W/m 2,1 C 8,5 C 16,1 km/h (3 Bft) 94,00 %
04.03.2017 23:10 11,9 C 50 % 997,0 hPa 0,0 l/m 12,8 km/h (3 Bft) O 96 0 min 0,000 mm 0,0 UV-I 0 W/m 1,8 C 8,3 C 17,7 km/h (3 Bft) 100,00 %
04.03.2017 23:12 12,2 C 50 % 997,0 hPa 0,0 l/m 10,5 km/h (2 Bft) S-SO 157 0 min 0,000 mm 0,0 UV-I 0 W/m 2,1 C 9,8 C 16,1 km/h (3 Bft) 96,23 %
04.03.2017 23:14 12,2 C 50 % 997,0 hPa 0,0 l/m 6,4 km/h (2 Bft) S-SO 154 0 min 0,000 mm 0,0 UV-I 0 W/m 2,1 C 12,2 C 12,9 km/h (3 Bft) 95,00 %
04.03.2017 23:16 12,3 C 49 % 997,0 hPa 0,0 l/m 6,5 km/h (2 Bft) O 94 0 min 0,000 mm 0,0 UV-I 0 W/m 1,9 C 12,3 C 11,3 km/h (2 Bft) 98,11 %
04.03.2017 23:19 12,2 C 50 % 997,0 hPa 0,0 l/m 8,0 km/h (2 Bft) O 92 0 min 0,000 mm 0,0 UV-I 0 W/m 2,1 C 11,2 C 11,3 km/h (2 Bft) 98,39 %
04.03.2017 23:20 12,1 C 50 % 997,0 hPa 0,0 l/m 10,7 km/h (2 Bft) O 83 0 min 0,000 mm 0,0 UV-I 0 W/m 2,0 C 9,6 C 16,1 km/h (3 Bft) 93,55 %
04.03.2017 23:22 12,2 C 49 % 997,1 hPa 0,0 l/m 7,5 km/h (2 Bft) SO 146 0 min 0,000 mm 0,0 UV-I 0 W/m 1,8 C 11,5 C 14,5 km/h (3 Bft) 97,73 %
04.03.2017 23:24 12,4 C 49 % 997,2 hPa 0,0 l/m 5,2 km/h (1 Bft) S-SO 155 0 min 0,000 mm 0,0 UV-I 0 W/m 2,0 C 12,4 C 12,9 km/h (3 Bft) 98,11 %
04.03.2017 23:26 12,5 C 48 % 997,1 hPa 0,0 l/m 3,5 km/h (1 Bft) SO 142 0 min 0,000 mm 0,0 UV-I 0 W/m 1,8 C 12,5 C 8,0 km/h (2 Bft) 97,87 %
04.03.2017 23:28 12,4 C 49 % 997,1 hPa 0,0 l/m 3,1 km/h (1 Bft) O 86 0 min 0,000 mm 0,0 UV-I 0 W/m 2,0 C 12,4 C 8,0 km/h (2 Bft) 94,44 %
04.03.2017 23:30 12,3 C 49 % 997,2 hPa 0,0 l/m 3,9 km/h (1 Bft) SO 128 0 min 0,000 mm 0,0 UV-I 0 W/m 1,9 C 12,3 C 6,4 km/h (2 Bft) 98,11 %
04.03.2017 23:32 12,1 C 50 % 997,2 hPa 0,0 l/m 4,4 km/h (1 Bft) O-SO 123 0 min 0,000 mm 0,0 UV-I 0 W/m 2,0 C 12,1 C 6,4 km/h (2 Bft) 96,00 %
04.03.2017 23:34 11,9 C 51 % 997,3 hPa 0,0 l/m 2,1 km/h (1 Bft) SO 125 0 min 0,000 mm 0,0 UV-I 0 W/m 2,1 C 11,9 C 6,4 km/h (2 Bft) 100,00 %
04.03.2017 23:36 11,7 C 51 % 997,4 hPa 0,0 l/m 2,4 km/h (1 Bft) O-SO 119 0 min 0,000 mm 0,0 UV-I 0 W/m 1,9 C 11,7 C 6,4 km/h (2 Bft) 96,43 %
04.03.2017 23:38 11,7 C 51 % 997,5 hPa 0,0 l/m 1,2 km/h (1 Bft) O-SO 119 0 min 0,000 mm 0,0 UV-I 0 W/m 1,9 C 11,7 C 4,8 km/h (1 Bft) 97,14 %
04.03.2017 23:40 11,6 C 51 % 997,4 hPa 0,0 l/m 1,0 km/h (0 Bft) O-SO 119 0 min 0,000 mm 0,0 UV-I 0 W/m 1,8 C 11,6 C 3,2 km/h (1 Bft) 98,11 %
04.03.2017 23:42 11,6 C 51 % 997,4 hPa 0,0 l/m 1,6 km/h (1 Bft) O 86 0 min 0,000 mm 0,0 UV-I 0 W/m 1,8 C 11,6 C 4,8 km/h (1 Bft) 98,00 %
04.03.2017 23:44 11,4 C 52 % 997,5 hPa 0,0 l/m 5,0 km/h (1 Bft) O-NO 74 0 min 0,000 mm 0,0 UV-I 0 W/m 1,9 C 11,4 C 6,4 km/h (2 Bft) 100,00 %
04.03.2017 23:46 11,6 C 51 % 997,5 hPa 0,0 l/m 5,5 km/h (1 Bft) O-NO 61 0 min 0,000 mm 0,0 UV-I 0 W/m 1,8 C 11,6 C 8,0 km/h (2 Bft) 94,34 %
04.03.2017 23:48 11,6 C 52 % 997,5 hPa 0,0 l/m 6,7 km/h (2 Bft) NO 46 0 min 0,000 mm 0,0 UV-I 0 W/m 2,1 C 11,4 C 8,0 km/h (2 Bft) 97,37 %
04.03.2017 23:50 11,4 C 52 % 997,5 hPa 0,0 l/m 7,5 km/h (2 Bft) O-NO 61 0 min 0,000 mm 0,0 UV-I 0 W/m 1,9 C 10,7 C 9,7 km/h (2 Bft) 97,87 %
04.03.2017 23:52 11,5 C 52 % 997,5 hPa 0,0 l/m 8,9 km/h (2 Bft) NO 47 0 min 0,000 mm 0,0 UV-I 0 W/m 2,0 C 9,9 C 11,3 km/h (2 Bft) 98,00 %
04.03.2017 23:54 11,6 C 52 % 997,5 hPa 0,0 l/m 8,0 km/h (2 Bft) NO 46 0 min 0,000 mm 0,0 UV-I 0 W/m 2,1 C 10,5 C 11,3 km/h (2 Bft) 100,00 %
04.03.2017 23:56 11,6 C 53 % 997,5 hPa 0,0 l/m 9,8 km/h (2 Bft) NO 43 0 min 0,000 mm 0,0 UV-I 0 W/m 2,4 C 9,5 C 14,5 km/h (3 Bft) 97,14 %
04.03.2017 23:58 11,3 C 53 % 997,3 hPa 0,0 l/m 10,4 km/h (2 Bft) N-NO 26 0 min 0,000 mm 0,0 UV-I 0 W/m 2,1 C 8,8 C 14,5 km/h (3 Bft) 100,00 %
_ Min-Zeit 06:48 16:12 17:36 - 03:52 - - - - - - 05:54 08:10 03:52 08:40
Minimum _ 0,6 C 36 % 994,6 hPa - 0,0 km/h (0 Bft) - - - - - - -0,8 C -3,6 C 0,0 km/h (0 Bft) 88,00 %
_ Max-Zeit 14:08 06:54 00:00 00:00 18:20 - - 09:19 14:02 12:38 12:38 13:40 14:22 17:09 00:40
Maximum _ 17,6 C 93 % 1005,6 hPa 0,0 l/m 18,0 km/h
O-NO (3 Bft)
- - 3 min 0,356 mm 2,0 UV-I 656 W/m 9,2 C 17,3 C 25,7 km/h
O (4 Bft)
100,00 %
Durchschnitt _ 9,3 C 67 % 999,2 hPa #0,0 l/m 7,9 km/h (2 Bft) O-NO - #6:52 h #2,388 mm 1,4 UV-I 285 W/m 3,0 C 7,7 C 12,0 km/h (2 Bft) 97,55 %